[[[{"header":{"parameterUnit":"kt","parameterCategory":2,"dx":1,"dy":1,"la1":29.285339999999998,"la2":30.599998999999997,"lo1":-89.70041500000002,"lo2":-87.6738589999976,"nx":112,"ny":82,"refTime":"2022-10-16T00:00:00:Z","depth":0,"parameterNumber":1,"parameterNumberName":"U-component_of_WINDS"},"data":[18.0311,18.1514,0.0,17.7679,17.7454,0.0,17.3469,0.0,0.0,0.0,0.0,0.0,0.0,0.0,0.0,17.595,0.0,0.0,0.0,17.2792,0.0,0.0,0.0,0.0,0.0,0.0,0.0,0.0,0.0,0.0,0.0,0.0,19.5936,19.5951,19.7455,19.8282,19.8057,19.8057,19.8057,19.8057,19.8057,19.8057,19.8057,19.8057,19.8057,19.8057,19.8057,19.8057,19.8057,19.8057,19.8432,19.9034,19.926,19.9786,20.0584,19.9813,19.9275,19.9242,19.9224,19.9414,19.9869,20.039,20.1377,20.2363,20.2971,20.373,20.4716,20.4716,20.4693,20.4863,20.4863,20.6077,20.7444,20.7444,20.8735,20.995,20.995,20.995,20.995,20.995,20.9342,20.8963,20.8355,20.8203,20.8203,20.8203,20.8203,20.8583,20.8963,20.957,20.995,20.995,20.995,20.995,20.995,20.995,20.995,20.995,20.995,20.9191,20.7444,20.6457,20.4863,20.2585,20.137,20.061,20.0003,20.0003,20.0003,20.0003,20.0003,20.0003,0.0,0.0,17.9409,17.4446,0.0,0.0,0.0,0.0,0.0,0.0,0.0,0.0,0.0,0.0,17.3168,0.0,0.0,0.0,0.0,0.0,0.0,0.0,0.0,0.0,0.0,0.0,0.0,0.0,0.0,0.0,0.0,19.5347,19.5726,19.6329,19.7915,19.8658,19.8432,19.8432,19.8432,19.8432,19.8432,19.8282,19.8282,19.8282,19.8282,19.8282,19.8282,19.8432,19.8432,19.8432,19.8432,19.8432,19.8658,19.8875,19.9041,19.9451,19.9414,19.9452,19.9611,19.9851,20.0003,20.0003,20.0762,20.1749,20.1749,20.2585,20.3344,20.3344,20.3344,20.3344,20.3344,20.4483,20.585,20.585,20.6989,20.8355,20.8355,20.8735,20.9191,20.9191,20.957,20.957,20.8355,20.9191,20.9722,20.9191,20.8583,20.8355,20.8963,20.957,20.995,20.995,20.995,20.995,20.995,20.995,20.995,20.995,20.995,20.8963,20.6609,20.5622,20.4103,20.1749,20.061,20.0003,20.0003,20.0003,20.0003,20.0003,20.0003,20.0003,0.0,0.0,0.0,16.9559,0.0,0.0,0.0,0.0,17.0837,0.0,0.0,0.0,0.0,0.0,0.0,0.0,0.0,0.0,0.0,0.0,0.0,0.0,0.0,0.0,0.0,0.0,0.0,0.0,0.0,0.0,19.37,19.4022,19.4819,19.65,19.829,19.9095,19.9019,19.9019,19.9019,19.9019,19.9019,19.8869,19.8418,19.8869,19.8869,19.8418,19.8869,19.9019,19.9019,19.9019,19.9019,19.9019,19.9004,19.9088,19.9224,19.9821,20.0003,20.0003,20.0003,20.0003,20.0003,20.0003,20.0003,20.0003,20.0003,20.0003,20.0003,20.0003,20.0003,20.0003,20.0003,20.1218,20.2585,20.2585,20.3875,20.509,20.509,20.6457,20.7444,20.7444,20.8735,20.995,20.995,20.995,20.9342,20.7824,20.8963,20.9342,20.7824,20.8963,20.995,20.995,20.995,20.995,20.995,20.995,20.995,20.995,20.995,20.8355,20.5242,20.509,20.3496,20.0003,20.0003,20.0003,20.0003,20.0003,20.0003,20.0003,20.0003,20.0003,17.0912,0.0,0.0,0.0,0.0,0.0,0.0,0.0,0.0,0.0,0.0,0.0,0.0,0.0,0.0,0.0,0.0,17.61,0.0,17.8882,0.0,0.0,0.0,0.0,0.0,0.0,0.0,0.0,0.0,19.0139,19.5903,19.5152,19.5732,19.8466,19.9062,19.9266,19.9052,19.9052,19.9052,19.9052,19.9052,19.9052,19.8901,19.9061,19.9093,19.8825,19.9052,19.9052,19.9052,19.9052,19.9052,19.9052,19.9198,19.9454,19.9821,20.0001,20.0003,20.0003,20.0003,20.0003,20.0003,20.0003,20.0003,20.0003,20.0003,20.0003,20.0003,20.0003,20.0003,20.0003,20.0003,20.1218,20.2585,20.2585,20.3875,20.547,20.6457,20.6989,20.7824,20.8963,20.957,20.995,20.995,20.995,20.9722,20.9342,20.957,20.9722,20.9342,20.9722,20.995,20.995,20.995,20.995,20.995,20.995,20.995,20.995,20.8735,20.7216,20.509,20.3875,20.2129,20.0003,20.0003,20.0003,20.0003,20.0003,20.0003,20.0003,20.0003,20.0003,0.0,0.0,0.0,0.0,0.0,0.0,16.8431,0.0,16.9483,0.0,0.0,0.0,0.0,0.0,0.0,0.0,17.5048,0.0,0.0,0.0,18.6698,0.0,0.0,0.0,0.0,0.0,0.0,0.0,19.0812,19.0587,19.5902,19.4612,19.5532,19.9613,19.9049,19.8864,19.9452,19.9452,19.9452,19.9452,19.9452,19.9403,19.9267,19.9393,19.9423,19.9224,19.9452,19.9452,19.9452,19.9452,19.9452,19.941,19.9611,19.9851,20.0003,20.0003,20.0003,20.0003,20.0003,20.0003,20.0003,20.0003,20.0003,20.0003,20.0003,20.0003,20.0003,20.0003,20.0003,20.0003,20.0003,20.0762,20.1597,20.1597,20.2129,20.3116,20.4103,20.4863,20.5622,20.6609,20.7976,20.8963,20.8963,20.957,20.995,20.995,20.995,20.995,20.995,20.995,20.995,20.995,20.995,20.995,20.995,20.995,20.995,20.995,20.8963,20.7976,20.7216,20.4863,20.2585,20.0003,20.0003,20.0003,20.0003,20.0003,20.0003,20.0003,20.0003,20.0003,0.0,0.0,0.0,0.0,16.9183,0.0,0.0,0.0,0.0,17.001,0.0,0.0,0.0,0.0,0.0,0.0,0.0,0.0,18.1514,0.0,0.0,0.0,0.0,0.0,0.0,19.3229,19.243,19.2406,18.9448,18.9752,19.4764,19.3549,19.4991,19.9623,19.8484,19.8484,19.9623,20.0003,20.0003,20.0003,20.0003,19.9813,19.9469,19.9865,19.9851,19.9471,19.9851,20.0003,20.0003,20.0003,20.0003,20.0003,20.0003,20.0003,20.0003,20.0003,20.0003,20.0003,20.0003,20.0003,20.0003,20.0003,20.0003,20.0003,20.0003,20.0003,20.0003,20.0003,20.0003,20.0003,20.0003,20.0003,20.0003,20.0003,20.0003,20.0003,20.0231,20.1597,20.2585,20.2736,20.5242,20.7444,20.7216,20.8583,20.9722,20.995,20.995,20.995,20.995,20.995,20.995,20.995,20.995,20.995,20.995,20.995,20.995,20.995,20.995,20.995,20.9722,20.6609,20.3496,20.0003,20.0003,20.0003,20.0003,20.0003,20.0003,20.0003,20.0003,20.0003,0.0,0.0,0.0,0.0,0.0,16.9483,0.0,0.0,0.0,0.0,0.0,0.0,0.0,0.0,0.0,0.0,0.0,0.0,0.0,0.0,0.0,0.0,0.0,0.0,0.0,19.4589,19.3899,19.2561,19.1802,19.241,19.4764,19.4612,19.5523,19.7877,19.9016,19.9016,19.8105,19.9244,20.0003,20.0003,20.0003,19.9995,19.9858,19.9995,20.0003,19.9851,20.0003,20.0003,20.0003,20.0003,20.0003,20.0003,20.0003,20.0003,20.0003,20.0003,20.0003,20.0003,20.0003,20.0003,20.0003,20.0003,20.0003,20.0003,20.0003,20.0003,20.0003,20.0003,20.0003,20.0003,20.0003,20.0003,20.0003,20.0003,20.0003,20.0383,20.1749,20.2357,20.2964,20.4331,20.6077,20.6989,20.5622,20.6837,20.8355,20.9722,20.995,20.995,20.995,20.995,20.995,20.995,20.995,20.995,20.995,20.995,20.995,20.995,20.995,20.9342,20.7976,20.6077,20.3496,20.0003,20.0003,20.0003,20.0003,20.0003,20.0003,20.0003,20.0003,20.0003,0.0,0.0,0.0,16.4044,0.0,0.0,0.0,16.9935,17.2266,17.6551,17.6025,17.58,17.9334,18.0537,18.0913,0.0,0.0,0.0,0.0,0.0,0.0,0.0,0.0,0.0,19.4991,19.4156,19.3701,19.3701,19.2941,19.2789,19.3701,19.3701,19.4384,19.613,19.7877,19.8256,19.7497,19.9244,20.0003,20.0003,20.0003,20.0003,20.0003,20.0003,20.0003,20.0003,20.0003,20.0003,20.0003,20.0003,20.0003,20.0003,20.0003,20.0003,20.0003,20.0003,20.0003,20.0003,20.0003,20.0003,20.0003,20.0003,20.0003,20.0003,20.0003,20.0003,20.0003,20.0003,20.0003,20.0003,20.0003,20.0003,20.0003,20.0003,20.0003,20.0231,20.1218,20.1218,20.1597,20.2357,20.3875,20.4711,20.3875,20.585,20.7596,20.8583,20.9342,20.995,20.995,20.995,20.995,20.995,20.995,20.995,20.995,20.995,20.995,20.995,20.995,20.9191,20.7444,20.585,20.3875,20.137,20.0383,20.0003,20.0003,20.0003,20.0003,20.0003,20.0003,20.0003,16.142,16.1947,16.3423,0.0,0.0,0.0,16.8615,16.9555,17.1514,0.0,17.5783,17.6081,18.0376,18.2033,0.0,0.0,0.0,0.0,0.0,0.0,0.0,0.0,0.0,0.0,19.4004,19.2714,19.2486,19.3852,19.3017,19.2562,19.2941,19.2941,19.3397,19.4384,19.6738,19.7725,19.689,19.9016,20.0003,20.0003,20.0003,20.0003,20.0003,20.0003,20.0003,20.0003,20.0003,20.0003,20.0003,20.0003,20.0003,20.0003,20.0003,20.0003,20.0003,20.0003,20.0003,20.0003,20.0003,20.0003,20.0003,20.0003,20.0003,20.0003,20.0003,20.0003,20.0003,20.0003,20.0003,20.0003,20.0003,20.0003,20.0003,20.0003,20.0003,20.0003,20.0003,20.0003,20.0003,20.0003,20.1218,20.2129,20.2585,20.509,20.6989,20.7444,20.8735,20.995,20.995,20.995,20.995,20.995,20.995,20.995,20.995,20.995,20.995,20.995,20.995,20.9191,20.7444,20.585,20.4331,20.2585,20.0762,20.0003,20.0003,20.0003,20.0003,20.0003,20.0003,20.0003,15.7299,15.8434,16.0505,16.3458,16.3355,0.0,17.573,17.6949,17.8131,0.0,18.7461,18.7307,18.7912,18.8139,0.0,0.0,0.0,0.0,0.0,0.0,0.0,0.0,0.0,0.0,19.0587,19.0284,19.0284,19.0436,19.1726,19.3093,19.4612,19.4764,19.408,19.2789,19.7269,19.8256,19.5371,19.8484,20.0003,20.0003,20.0003,20.0003,20.0003,20.0003,20.0003,20.0003,20.0003,20.0003,20.0003,20.0003,20.0003,20.0003,20.0003,20.0003,20.0003,20.0003,20.0003,20.0003,20.0003,20.0003,20.0003,20.0003,20.0003,20.0003,20.0003,20.0003,20.0003,20.0003,20.0003,20.0003,20.0003,20.0003,20.0003,20.0003,20.0003,20.0003,20.0003,20.0003,20.0003,20.0003,20.0231,20.0762,20.2357,20.4103,20.585,20.7216,20.8735,20.995,20.995,20.995,20.995,20.995,20.995,20.995,20.995,20.995,20.995,20.995,20.995,20.9191,20.7444,20.585,20.4331,20.2585,20.0762,20.0003,20.0003,20.0003,20.0003,20.0003,20.0003,20.0003,15.4827,15.7646,16.1213,16.1669,0.0,0.0,17.3887,17.6061,17.8785,0.0,18.5779,18.5945,18.8993,18.8625,18.7909,0.0,0.0,0.0,0.0,0.0,0.0,0.0,0.0,0.0,0.0,18.9904,19.0284,19.1347,19.203,19.2714,19.3473,19.3473,19.2714,19.1043,19.4991,19.6358,19.4991,19.7269,19.9016,20.0003,20.0003,20.0003,20.0003,20.0003,20.0003,20.0003,20.0003,20.0003,20.0003,20.0003,20.0003,20.0003,20.0003,20.0003,20.0003,20.0003,20.0003,20.0003,20.0003,20.0003,20.0003,20.0003,20.0003,20.0003,20.0003,20.0003,20.0003,20.0003,20.0003,20.0003,20.0003,20.0003,20.0003,20.0003,20.0003,20.0003,20.0003,20.0003,20.0003,20.0003,20.0003,20.0231,20.099,20.2585,20.4103,20.585,20.7444,20.8735,20.9722,20.995,20.995,20.995,20.995,20.995,20.995,20.995,20.995,20.995,20.995,20.8735,20.6229,20.547,20.3875,20.1218,20.0383,20.0003,20.0003,20.0003,20.0003,20.0003,20.0003,20.0003,15.3837,0.0,0.0,0.0,0.0,0.0,17.5404,17.7503,18.0021,18.5105,18.4817,18.4817,18.8537,18.7703,18.6263,0.0,0.0,0.0,0.0,0.0,0.0,0.0,0.0,0.0,0.0,0.0,0.0,0.0,19.2638,19.2714,19.1802,19.2638,19.2334,19.0663,19.3473,19.4991,19.4991,19.613,19.7725,19.9244,19.9244,19.9623,20.0003,20.0003,20.0003,20.0003,20.0003,20.0003,20.0003,20.0003,20.0003,20.0003,20.0003,20.0003,20.0003,20.0003,20.0003,20.0003,20.0003,20.0003,20.0003,20.0003,20.0003,20.0003,20.0003,20.0003,20.0003,20.0003,20.0003,20.0003,20.0003,20.0003,20.0003,20.0003,20.0003,20.0003,20.0003,20.0003,20.0003,20.0003,20.0003,20.0003,20.0003,20.137,20.3116,20.4863,20.6457,20.7976,20.9722,20.957,20.9342,20.995,20.957,20.9342,20.995,20.995,20.995,20.995,20.957,20.7976,20.5242,20.4711,20.2964,20.0003,20.0003,20.0003,20.0003,20.0003,20.0003,20.0003,20.0003,20.0003,0.0,0.0,0.0,17.0466,17.1073,17.3047,18.4513,18.4663,18.3753,18.8765,18.8537,18.7474,18.7626,18.6259,18.4587,0.0,0.0,0.0,0.0,0.0,0.0,0.0,0.0,0.0,0.0,0.0,0.0,0.0,19.3017,19.3473,19.0132,19.3093,19.408,19.241,19.408,19.4991,19.4991,19.4991,19.5903,19.7497,19.7497,19.8484,20.0003,20.0003,20.0003,20.0003,20.0003,20.0003,20.0003,20.0003,20.0003,20.0003,20.0003,20.0003,20.0003,20.0003,20.0003,20.0003,20.0003,20.0003,20.0003,20.0003,20.0003,20.0003,20.0003,20.0003,20.0003,20.0003,20.0003,20.0003,20.0003,20.0003,20.0003,20.0003,20.0003,20.0003,20.0003,20.0003,20.0003,20.0003,20.0003,20.0003,20.0003,20.137,20.3116,20.4863,20.6457,20.7976,20.9722,20.8583,20.8203,20.9722,20.8355,20.8203,20.9722,20.995,20.995,20.995,20.8355,20.6837,20.509,20.3496,20.1749,20.0003,20.0003,20.0003,20.0003,20.0003,20.0003,20.0003,20.0003,20.0003,15.7633,16.2037,16.6897,17.1301,17.4566,17.7679,18.1628,18.3374,18.4665,18.6335,18.6259,18.588,18.588,18.3602,18.1552,0.0,0.0,0.0,0.0,0.0,0.0,0.0,0.0,0.0,0.0,0.0,0.0,0.0,0.0,0.0,19.0056,19.203,19.2486,19.0815,19.1347,19.2182,19.3245,19.3321,19.4156,19.5751,19.689,19.7877,19.8484,19.9471,20.0003,20.0003,20.0003,20.0003,20.0003,20.0003,20.0003,20.0003,20.0003,20.0003,20.0003,20.0003,20.0003,20.0003,20.0003,20.0003,20.0003,20.0003,20.0003,20.0003,20.0003,20.0003,20.0003,20.0003,20.0003,20.0003,20.0003,20.0003,20.0003,20.0003,20.0003,20.0003,20.0003,20.0003,20.0003,20.0003,20.0003,20.0003,20.0003,20.0383,20.137,20.3116,20.4863,20.6457,20.7976,20.7824,20.7976,20.9722,20.8355,20.7596,20.8203,20.9342,20.957,20.8355,20.7824,20.6609,20.509,20.3496,20.1749,20.0003,20.0003,20.0003,20.0003,20.0003,20.0003,20.0003,20.0003,20.0003,15.9987,16.4163,16.8643,17.3123,17.7148,18.0337,18.1552,18.3526,18.5044,18.5044,18.4589,18.4133,18.4133,18.1855,18.0033,0.0,0.0,0.0,0.0,0.0,0.0,0.0,0.0,0.0,0.0,0.0,0.0,0.0,0.0,19.1726,18.998,19.1499,19.165,18.998,19.0512,19.1043,19.1499,19.1499,19.241,19.408,19.5143,19.6358,19.7497,19.8636,19.9471,20.0003,20.0003,20.0003,20.0003,20.0003,20.0003,20.0003,20.0003,20.0003,20.0003,20.0003,20.0003,20.0003,20.0003,20.0003,20.0003,20.0003,20.0003,20.0003,20.0003,20.0003,20.0003,20.0003,20.0003,20.0003,20.0003,20.0003,20.0003,20.0003,20.0003,20.0003,20.0003,20.0003,20.0003,20.0003,20.0003,20.0003,20.0003,20.0003,20.061,20.2357,20.3496,20.4711,20.6457,20.6609,20.6989,20.7976,20.7216,20.6609,20.6609,20.7976,20.8583,20.7444,20.7444,20.6609,20.509,20.3496,20.1749,20.0003,20.0003,20.0003,20.0003,20.0003,20.0003,20.0003,20.0003,20.0003,16.2037,16.553,16.963,17.6236,17.9046,18.0944,18.4209,18.4893,18.4817,18.4817,18.3526,18.2387,18.2387,18.1096,18.0033,18.0033,0.0,0.0,0.0,0.0,0.0,0.0,0.0,0.0,0.0,0.0,0.0,0.0,19.1423,19.1575,18.998,19.1423,19.1575,18.998,19.1499,19.1575,18.9904,18.9904,19.0739,19.2334,19.241,19.4156,19.7269,19.7497,19.8484,19.9851,19.9851,20.0003,20.0003,20.0003,20.0003,20.0003,20.0003,20.0003,20.0003,20.0003,20.0003,20.0003,20.0003,20.0003,20.0003,20.0003,20.0003,20.0003,20.0003,20.0003,20.0003,20.0003,20.0003,20.0003,20.0003,20.0003,20.0003,20.0003,20.0003,20.0003,20.0003,20.0003,20.0003,20.0003,20.0003,20.0003,20.0003,20.0003,20.061,20.2129,20.2585,20.3116,20.4711,20.509,20.509,20.5242,20.5242,20.5242,20.5242,20.6609,20.7444,20.7444,20.7444,20.6609,20.509,20.3344,20.1597,20.0003,20.0003,20.0003,20.0003,20.0003,20.0003,20.0003,20.0003,20.0003,16.796,17.2364,17.6236,18.1779,18.2539,18.2083,18.2994,18.2159,18.1248,18.1248,18.0944,18.064,18.064,18.0261,18.0033,18.0033,0.0,0.0,0.0,0.0,0.0,0.0,0.0,0.0,0.0,0.0,0.0,0.0,19.0284,19.036,18.9904,19.0284,19.036,18.9904,19.0284,19.036,18.9904,18.9904,19.0132,19.0587,19.1802,19.2865,19.3777,19.6358,19.7725,19.8105,19.8105,19.8864,20.0003,20.0003,20.0003,20.0003,20.0003,20.0003,20.0003,20.0003,20.0003,20.0003,20.0003,20.0003,20.0003,20.0003,20.0003,20.0003,20.0003,20.0003,20.0003,20.0003,20.0003,20.0003,20.0003,20.0003,20.0003,20.0003,20.0003,20.0003,20.0003,20.0003,20.0003,20.0003,20.0003,20.0003,20.0003,20.0003,20.0231,20.061,20.1749,20.2736,20.3116,20.4331,20.547,20.6609,20.6837,20.6837,20.6837,20.8355,20.8735,20.7444,20.6229,20.547,20.509,20.2129,20.0383,20.0003,20.0003,20.0003,20.0003,20.0003,20.0003,20.0003,20.0003,20.0003,16.9023,17.3275,17.7375,18.1779,18.2083,18.14,18.14,18.0716,18.0033,18.0033,18.0033,18.0033,18.0033,18.0033,18.0033,18.0033,0.0,0.0,0.0,0.0,0.0,0.0,0.0,0.0,0.0,0.0,0.0,0.0,18.9904,18.9904,18.9904,18.9904,18.9904,18.9904,18.9904,18.9904,18.9904,18.9904,18.9904,18.9904,19.0891,19.1726,19.2486,19.4384,19.5371,19.5371,19.689,19.8105,19.9016,19.9623,20.0003,20.0003,20.0003,20.0003,20.0003,20.0003,20.0003,20.0003,20.0003,20.0003,20.0003,20.0003,20.0003,20.0003,20.0003,20.0003,20.0003,20.0003,20.0003,20.0003,20.0003,20.0003,20.0003,20.0003,20.0003,20.0003,20.0003,20.0003,20.0003,20.0003,20.0003,20.0003,20.0003,20.0003,20.0003,20.0003,20.0762,20.137,20.137,20.3496,20.509,20.5242,20.6609,20.6837,20.547,20.6837,20.7444,20.6457,20.6229,20.585,20.509,20.3344,20.1597,20.0003,20.0003,20.0003,20.0003,20.0003,20.0003,20.0003,20.0003,20.0003,16.9023,17.2364,17.6312,17.9274,18.0033,18.0033,18.0033,18.0033,18.0033,18.0033,18.0033,18.0033,18.0033,18.0033,18.0033,18.0033,18.0033,0.0,0.0,0.0,0.0,0.0,0.0,0.0,0.0,0.0,0.0,0.0,18.9904,18.9904,18.9904,18.9904,18.9904,18.9904,18.9904,18.9904,18.9904,18.9904,18.9904,18.9904,18.9904,19.0663,19.2106,19.2334,19.241,19.2562,19.5523,19.7118,19.7725,19.9016,19.9851,20.0003,20.0003,20.0003,20.0003,20.0003,20.0003,20.0003,20.0003,20.0003,20.0003,20.0003,20.0003,20.0003,20.0003,20.0003,20.0003,20.0003,20.0003,20.0003,20.0003,20.0003,20.0003,20.0003,20.0003,20.0003,20.0003,20.0003,20.0003,20.0003,20.0003,20.0003,20.0003,20.0003,20.0003,20.0003,20.0003,20.0003,20.0003,20.2736,20.4331,20.2964,20.5622,20.6229,20.3496,20.4483,20.547,20.547,20.6229,20.6229,20.509,20.4711,20.2964,20.0003,20.0003,20.0003,20.0003,20.0003,20.0003,20.0003,20.0003,19.9851,17.6692,17.8514,17.9274,17.9881,18.0033,18.0033,18.0033,18.0033,18.0033,18.0033,18.0033,18.0033,18.0033,18.0033,18.0033,18.0033,18.0033,0.0,0.0,0.0,0.0,0.0,0.0,0.0,0.0,0.0,0.0,0.0,0.0,18.9904,18.9904,18.9904,18.9904,18.9904,18.9904,18.9904,18.9904,18.9904,18.9904,18.9904,18.9904,19.0056,19.0436,19.1802,19.241,19.2486,19.3093,19.4991,19.7497,19.7877,19.8636,20.0003,20.0003,20.0003,20.0003,20.0003,20.0003,20.0003,20.0003,20.0003,20.0003,20.0003,20.0003,20.0003,20.0003,20.0003,20.0003,20.0003,20.0003,20.0003,20.0003,20.0003,20.0003,20.0003,20.0003,20.0003,20.0003,20.0003,20.0003,20.0003,20.0003,20.0003,20.0003,20.0003,20.0003,20.0003,20.0003,20.0003,20.0003,20.1749,20.3344,20.4483,20.6229,20.7216,20.6609,20.6837,20.6989,20.6989,20.4711,20.3875,20.509,20.2357,20.061,20.0003,20.0003,20.0003,20.0003,20.0003,20.0003,20.0003,20.0003,19.9244,17.3579,17.7299,18.0716,17.8059,17.8666,18.0033,18.0033,18.0033,18.0261,18.1096,18.064,18.0033,18.0033,18.0033,18.0033,18.0033,18.0033,0.0,0.0,0.0,0.0,0.0,0.0,0.0,0.0,0.0,0.0,0.0,0.0,18.9904,18.9904,18.9904,18.9904,18.9904,18.9904,18.9904,18.9904,18.9904,18.9904,18.9904,18.9904,19.036,19.1271,19.1195,19.1119,19.1195,19.203,19.3321,19.4991,19.6738,19.7877,19.8864,19.9623,20.0003,20.0003,20.0003,20.0003,20.0003,20.0003,20.0003,20.0003,20.0003,20.0003,20.0003,20.0003,20.0003,20.0003,20.0003,20.0003,20.0003,20.0003,20.0003,20.0003,20.0003,20.0003,20.0003,20.0003,20.0003,20.0003,20.0003,20.0003,20.0003,20.0003,20.0003,20.0003,20.0003,20.0003,20.0003,20.0003,20.1597,20.3116,20.4863,20.6457,20.6989,20.6229,20.6229,20.585,20.4863,20.2585,20.1977,20.3724,20.0383,19.8636,19.8636,19.9623,20.0003,20.0003,20.0003,20.0003,20.0003,20.0003,19.9016,17.1605,17.6236,18.1248,17.8363,17.859,17.9729,18.0868,18.0792,18.0792,18.1779,18.0944,18.0033,18.0033,18.0033,18.0033,18.0033,18.0033,0.0,0.0,0.0,0.0,0.0,0.0,0.0,0.0,0.0,0.0,0.0,0.0,0.0,18.9904,18.9904,18.9904,18.9904,18.9904,18.9904,18.9904,18.9904,18.9904,18.9904,18.9904,19.0587,19.1878,19.0891,19.0436,19.0512,19.1499,19.2106,19.2638,19.5751,19.7118,19.7725,19.9471,20.0003,20.0003,20.0003,20.0003,20.0003,20.0003,20.0003,20.0003,20.0003,20.0003,20.0003,20.0003,20.0003,20.0003,20.0003,20.0003,20.0003,20.0003,20.0003,20.0003,20.0003,20.0003,20.0003,20.0003,20.0003,20.0003,20.0003,20.0003,20.0003,20.0003,20.0003,20.0003,20.0003,20.0003,20.0003,20.0003,20.1218,20.2736,20.4331,20.5622,20.5622,20.4103,20.4331,20.3724,20.1597,20.0231,20.0003,20.137,19.8256,19.6738,19.7497,19.8864,19.9623,20.0003,20.0003,20.0003,20.0003,20.0003,19.8864,18.0413,18.0716,18.1248,18.5348,18.2007,17.8894,18.3526,18.3374,18.1931,18.0489,18.0109,18.0033,18.0033,18.0033,18.0033,18.0033,18.0033,0.0,0.0,0.0,18.0716,0.0,0.0,0.0,0.0,0.0,0.0,0.0,0.0,0.0,0.0,18.9904,18.9904,18.9904,18.9904,18.9904,18.9904,18.9904,18.9904,18.9904,18.9904,18.998,19.0208,19.1575,19.2182,19.2106,19.0739,19.1043,19.2562,19.4384,19.613,19.7725,19.9471,20.0003,20.0003,20.0003,20.0003,20.0003,20.0003,20.0003,20.0003,20.0003,20.0003,20.0003,20.0003,20.0003,20.0003,20.0003,20.0003,20.0003,20.0003,20.0003,20.0003,20.0003,20.0003,20.0003,20.0003,20.0003,20.0003,20.0003,20.0003,20.0003,20.0003,20.0003,20.0003,20.0003,20.0003,20.0003,20.0003,20.0231,20.099,20.2585,20.2964,20.2357,20.061,20.1977,20.137,19.8105,19.7877,19.7877,19.7877,19.4764,19.4308,19.7497,19.7725,19.8484,20.0003,20.0003,20.0003,20.0003,20.0003,19.8256,16.7884,17.206,17.6464,17.449,17.654,17.9501,18.1552,18.307,18.3905,18.3222,18.14,17.9653,17.8666,17.935,17.9653,17.8666,17.935,18.0033,18.0033,18.0033,18.064,0.0,0.0,0.0,0.0,0.0,0.0,0.0,0.0,0.0,0.0,18.9904,18.9904,18.9904,18.9904,18.9904,18.9904,18.9904,18.9904,18.9904,19.0967,19.1954,19.3017,19.3701,19.3397,19.241,19.1726,19.1271,19.1043,19.2714,19.3852,19.4764,19.7497,19.8484,19.8636,19.9623,20.0003,20.0003,20.0003,20.0003,20.0003,20.0003,20.0003,20.0003,20.0003,20.0003,20.0003,20.0003,20.0003,20.0003,20.0003,20.0003,20.0003,20.0003,20.0003,20.0003,20.0003,20.0003,20.0003,20.0003,20.0003,20.0003,20.0003,20.0003,20.0003,20.0003,20.0003,20.0003,20.0003,20.0003,20.061,20.2357,20.1597,20.0762,20.0003,19.9623,19.8484,19.613,19.4991,19.4004,19.2941,19.2638,19.3549,19.5903,19.689,19.8256,20.0003,20.0003,20.0003,20.0003,19.9016,19.7725,16.2189,16.7201,17.2592,16.8871,17.2895,17.8135,17.9653,18.1096,18.2767,18.5272,18.2691,17.9653,17.8438,17.8818,17.8818,17.7679,17.8894,18.0033,18.0033,18.0033,18.0413,0.0,0.0,0.0,0.0,0.0,0.0,0.0,0.0,0.0,0.0,18.9904,18.9904,18.9904,18.9904,18.9904,18.9904,18.9904,19.0132,19.0663,19.1878,19.3321,19.4991,19.5523,19.4764,19.3169,19.3169,19.2258,19.0739,19.1954,19.241,19.2714,19.5523,19.7118,19.7725,19.8864,19.9623,20.0003,20.0003,20.0003,20.0003,20.0003,20.0003,20.0003,20.0003,20.0003,20.0003,20.0003,20.0003,20.0003,20.0003,20.0003,20.0003,20.0003,20.0003,20.0003,20.0003,20.0003,20.0003,20.0003,20.0003,20.0003,20.0003,20.0003,20.0003,20.0003,20.0003,20.0003,20.0003,20.0003,20.0231,20.099,20.0003,19.8864,19.7877,19.7725,19.6358,19.3625,19.3321,19.2182,18.998,19.1043,19.2486,19.4156,19.5903,19.7497,19.9244,19.9851,20.0003,20.0003,19.8256,19.7497,16.9934,17.001,17.0845,17.4034,17.3655,17.3807,17.8818,17.7451,17.7451,18.5804,18.3526,18.0033,17.9957,17.859,17.7527,17.7451,17.8894,18.0033,18.0033,18.0033,18.0033,0.0,0.0,0.0,0.0,0.0,0.0,0.0,0.0,0.0,0.0,18.9904,18.9904,18.9904,18.9904,18.9904,18.9904,18.9904,19.0739,19.241,19.241,19.3321,19.4991,19.6738,19.651,19.4991,19.4991,19.4004,19.241,19.241,19.241,19.2638,19.4308,19.5903,19.7497,19.7497,19.8636,20.0003,20.0003,20.0003,20.0003,20.0003,20.0003,20.0003,20.0003,20.0003,20.0003,20.0003,20.0003,20.0003,20.0003,20.0003,20.0003,20.0003,20.0003,20.0003,20.0003,20.0003,20.0003,20.0003,20.0003,20.0003,20.0003,20.0003,20.0003,20.0003,20.0003,20.0003,20.0003,20.0003,19.9471,19.7725,19.7497,19.613,19.2789,19.5523,19.5371,19.0284,19.3093,19.3397,19.0056,18.9904,19.0739,19.241,19.4156,19.5751,19.7497,19.9244,20.0003,20.0003,19.8256,19.7497,16.3176,16.4847,16.7125,16.9327,16.9479,17.0997,17.8363,18.0944,18.2311,18.383,18.2842,18.102,17.8666,17.9729,18.0565,17.9426,17.9653,18.0033,18.0033,18.0033,18.0033,0.0,0.0,0.0,0.0,0.0,0.0,0.0,0.0,0.0,0.0,18.9904,18.9904,18.9904,18.9904,18.9904,18.9904,18.9904,19.0739,19.2486,19.3625,19.5751,19.8484,19.9016,19.8256,19.6738,19.6738,19.5751,19.408,19.2941,19.241,19.2486,19.3017,19.4232,19.5903,19.7118,19.8636,20.0003,20.0003,20.0003,20.0003,20.0003,20.0003,20.0003,20.0003,20.0003,20.0003,20.0003,20.0003,20.0003,20.0003,20.0003,20.0003,20.0003,20.0003,20.0003,20.0003,20.0003,20.0003,20.0003,20.0003,20.0003,20.0003,20.0003,20.0003,20.0003,20.0003,20.0003,20.0003,20.0003,19.9851,19.9244,19.7118,19.5371,19.4232,19.3017,19.165,18.998,19.203,19.2258,18.998,18.9904,19.0739,19.241,19.2941,19.4612,19.7497,19.8105,19.8864,20.0003,19.7118,19.689,16.2341,16.3936,16.5606,16.796,16.758,16.8643,17.6312,17.8287,17.8666,17.9501,18.0185,17.9957,17.7831,17.9729,18.102,17.935,17.9577,18.0033,18.0033,18.0033,18.0033,0.0,0.0,0.0,0.0,0.0,0.0,0.0,0.0,0.0,18.9904,18.9904,18.9904,18.9904,18.9904,18.9904,18.9904,18.9904,19.0739,19.2486,19.4156,19.6358,19.9016,19.9623,19.9471,19.8484,19.8484,19.7497,19.5751,19.4764,19.4004,19.3321,19.2714,19.3093,19.4232,19.5903,19.7725,19.9244,19.9851,20.0003,20.0003,20.0003,20.0003,20.0003,20.0003,20.0003,20.0003,20.0003,20.0003,20.0003,20.0003,20.0003,20.0003,20.0003,20.0003,20.0003,20.0003,20.0003,20.0003,20.0003,20.0003,20.0003,20.0003,20.0003,20.0003,20.0003,20.0003,20.0003,20.0003,19.9471,19.9016,19.9016,19.5903,19.3777,19.3093,19.1726,19.0587,18.998,19.2714,19.3852,19.2865,19.2182,19.2334,19.3397,19.4004,19.5371,19.7497,19.8105,19.9016,20.0003,19.7269,19.7118,16.5986,16.6214,16.5834,16.9403,16.796,16.7352,17.3731,17.1453,16.9327,17.3731,17.5857,17.6996,17.7072,17.859,17.9426,17.8211,17.9122,18.0033,18.0033,0.0,18.0109,18.0033,0.0,0.0,0.0,0.0,0.0,0.0,0.0,0.0,18.9904,18.9904,18.9904,18.9904,18.9904,18.9904,18.9904,18.9904,19.0739,19.2486,19.4004,19.5751,19.7269,19.9016,19.9851,19.9851,20.0003,19.9016,19.7725,19.7497,19.651,19.4991,19.3169,19.241,19.2638,19.4232,19.5903,19.7497,19.9244,19.9851,19.9851,20.0003,20.0003,20.0003,20.0003,20.0003,20.0003,20.0003,20.0003,20.0003,20.0003,20.0003,20.0003,20.0003,20.0003,20.0003,20.0003,20.0003,20.0003,20.0003,20.0003,20.0003,20.0003,20.0003,20.0003,20.0003,20.0003,20.0003,20.0003,19.8636,19.7725,19.7497,19.4764,19.2106,19.0436,19.1726,19.1954,19.036,19.4764,19.7269,19.7269,19.5751,19.4764,19.4991,19.651,19.7269,19.7497,19.9016,19.9851,20.0003,19.8256,19.7497,16.4619,16.5378,16.6138,17.0693,17.2212,17.3351,17.6236,17.5022,17.282,17.1529,17.1529,17.2212,17.3427,17.6085,17.9198,18.2691,18.1476,18.0033,18.0033,18.1096,18.1476,18.0185,0.0,0.0,18.307,18.4665,18.6335,0.0,0.0,0.0,18.9904,18.9904,18.9904,18.9904,18.9904,18.9904,18.9904,18.9904,19.0739,19.241,19.2865,19.3928,19.5523,19.7269,19.8105,19.8105,19.9471,19.9851,19.9244,19.8105,19.7269,19.651,19.3625,19.241,19.2486,19.2865,19.408,19.5751,19.7497,19.8105,19.8256,19.9623,20.0003,20.0003,20.0003,20.0003,20.0003,20.0003,20.0003,20.0003,20.0003,20.0003,20.0003,20.0003,20.0003,20.0003,20.0003,20.0003,20.0003,20.0003,20.0003,20.0003,20.0003,20.0003,20.0003,20.0003,20.0003,20.0003,20.0003,19.9623,19.8864,19.7725,19.6738,19.5523,19.3928,19.4156,19.4232,19.3777,19.4991,19.5523,19.5523,19.3928,19.3625,19.4991,19.5371,19.613,19.7497,19.7877,19.8636,20.0003,19.8256,19.7497,16.5075,16.6214,16.6821,16.9554,17.0314,17.0618,17.1529,16.9858,16.7808,16.6821,16.6593,16.8264,17.3731,17.4414,17.6464,18.383,18.2842,18.0868,18.0109,18.1476,18.1931,0.0,0.0,18.1703,18.2463,18.4057,18.5728,0.0,0.0,0.0,18.9904,18.9904,18.9904,18.9904,18.9904,18.9904,18.9904,18.9904,19.036,19.1271,19.2106,19.2941,19.3852,19.5523,19.6358,19.651,0.0,19.8864,19.8864,19.8636,19.8636,19.8256,19.4991,19.3625,19.3397,19.1878,19.2334,19.408,19.5751,19.689,19.7725,19.8484,19.9471,20.0003,20.0003,20.0003,20.0003,20.0003,20.0003,20.0003,20.0003,20.0003,20.0003,20.0003,20.0003,20.0003,20.0003,20.0003,20.0003,20.0003,20.0003,20.0003,20.0003,20.0003,20.0003,20.0003,19.9471,19.9016,19.9851,19.8636,19.7725,19.7497,19.6738,19.5903,19.4991,19.4991,19.5371,19.613,19.689,19.689,19.613,19.4612,19.4384,19.613,19.613,19.689,19.8636,19.8636,19.9016,20.0003,19.9016,19.7877,16.553,16.6973,16.7201,16.7504,16.6517,16.5454,16.5758,16.3176,16.1126,16.2569,16.2873,16.5606,17.4338,17.2895,17.3275,18.2083,18.2767,18.1628,18.0185,18.1703,18.2159,18.0261,18.0261,18.0868,18.2007,18.3905,18.5652,18.7095,18.8917,18.9904,18.9904,18.9904,18.9904,18.9904,18.9904,18.9904,18.9904,18.9904,18.9904,18.9904,19.1347,19.203,19.2106,19.3777,19.4612,19.4612,0.0,19.7118,19.7269,19.8636,19.9471,19.9244,19.613,19.5143,19.4991,19.1802,19.1575,19.3017,19.4384,19.613,19.7497,19.7877,19.8864,20.0003,20.0003,20.0003,20.0003,20.0003,20.0003,20.0003,20.0003,20.0003,20.0003,20.0003,20.0003,20.0003,20.0003,20.0003,20.0003,20.0003,19.9851,19.9623,19.9623,19.9471,19.9244,19.9623,19.8484,19.8105,19.9851,19.7497,19.613,19.7269,19.613,19.5371,19.5371,19.5371,19.613,19.8105,19.9471,19.9244,19.7497,19.613,19.5903,19.7497,19.7497,19.8256,20.0003,20.0003,20.0003,20.0003,19.9851,19.7877,16.2645,16.4315,16.5758,16.7201,16.7352,16.7504,16.8947,16.6669,16.4315,16.4619,16.4619,16.553,16.8567,17.0693,17.3047,17.6009,17.8666,18.0261,18.0033,18.2691,18.3526,18.0337,18.1248,0.0,18.0489,18.3222,18.5196,18.5424,18.8234,18.9904,18.9904,18.9904,18.9904,18.9904,18.9904,18.9904,18.9904,18.9904,18.9904,18.9904,19.0132,19.0284,19.036,19.203,19.2865,19.2941,0.0,0.0,19.5371,19.5523,19.651,19.7725,19.5751,19.5903,19.689,19.4991,19.4384,19.4612,19.4991,19.613,19.7725,19.9244,19.9851,20.0003,20.0003,20.0003,20.0003,20.0003,20.0003,20.0003,20.0003,20.0003,20.0003,20.0003,20.0003,20.0003,20.0003,20.0003,20.0003,20.0003,19.8864,19.7877,19.7877,19.6738,19.613,19.7725,19.7725,19.8105,19.9851,19.9623,19.8864,19.7725,19.7269,19.7118,19.7118,19.7118,19.8484,20.1597,20.061,19.9244,19.7497,19.7269,19.7269,19.7497,19.7497,19.8256,20.0003,20.0003,20.0003,20.0003,19.8484,19.689,16.2037,16.31,16.4315,16.6897,16.6897,16.6593,16.834,16.6821,16.553,16.7352,16.6289,16.6669,17.1984,17.1984,17.2592,17.6996,17.8211,17.9274,18.1096,18.2691,18.2767,18.0261,18.0716,18.0868,0.0,18.2235,18.4057,18.4969,18.7322,18.8993,18.9904,18.9904,18.9904,18.9904,18.9904,18.9904,18.9904,18.9904,18.9904,18.9904,18.9904,18.9904,18.9904,19.0739,19.1043,19.1195,19.2865,19.3625,19.3701,19.4612,19.5371,19.613,19.5371,19.4991,19.4764,19.4991,19.4384,19.3701,19.4612,19.5523,19.6358,19.8105,19.9244,20.0003,20.0003,20.0003,20.0003,20.0003,20.0003,20.0003,20.0003,20.0003,20.0003,20.0003,20.0003,20.0003,20.0003,20.0003,20.0003,20.0003,19.9471,19.8864,19.8864,19.8256,19.7877,19.8636,19.8105,19.8105,19.9851,19.9244,19.8636,19.8864,19.8864,19.8864,19.8864,19.8105,19.8105,19.9623,19.9016,19.7877,19.613,19.5143,19.4308,19.3397,19.5143,19.689,19.8636,19.9623,20.0003,20.0003,19.9244,19.7877,16.2037,0.0,16.3784,16.6821,16.6593,16.6062,0.0,16.7125,16.6973,16.9554,16.8036,16.8264,17.5022,17.3199,17.2592,17.8438,17.8363,17.8666,18.2007,18.2159,18.1476,18.0185,18.0033,18.0033,18.0033,18.1552,18.3222,18.4893,18.6639,18.8234,18.9828,18.9904,18.9904,18.9904,18.9904,18.9904,18.9904,18.9904,18.9904,18.9904,18.9904,18.9904,18.9904,18.9904,18.9904,18.998,19.1271,19.1802,19.1954,19.3245,19.4004,19.4384,19.4764,19.4156,19.3321,19.5371,19.5143,19.3852,19.5523,19.613,19.6358,19.7725,19.9016,20.0003,20.0003,20.0003,20.0003,20.0003,20.0003,20.0003,20.0003,20.0003,20.0003,20.0003,19.9623,19.9623,20.0003,19.9623,19.9623,20.0003,19.9623,19.9471,19.9471,19.9016,19.9016,19.9471,19.8256,19.8105,19.9851,19.8864,19.8484,19.9244,19.9471,19.9244,19.8864,19.7725,19.689,19.689,19.689,19.613,19.4384,19.3093,19.165,18.998,19.2865,19.5143,19.689,19.9016,20.0003,20.0003,19.9623,19.8636,0.0,16.3632,16.5302,16.7125,16.7428,16.7808,16.9554,16.9782,0.0,17.001,16.9858,17.039,17.2364,17.2516,17.3427,17.7072,17.7527,17.8666,18.2007,18.1172,18.0109,18.0033,18.0033,18.0033,18.0033,18.1552,18.3222,18.4893,18.6639,18.8234,18.9828,18.9904,18.9904,18.9904,18.9904,18.9904,18.9904,18.9904,18.9904,18.9904,18.9904,18.9904,18.9904,18.9904,18.9904,0.0,19.0056,19.0056,19.0132,19.0208,19.1195,19.2789,19.4308,19.4991,19.5143,19.8484,19.8636,19.7269,19.9016,19.9623,19.9623,19.9851,19.9851,20.0003,20.0003,20.0003,20.0003,20.0003,20.0003,20.0003,20.0003,20.0003,20.0003,20.0003,19.8864,19.8105,19.9623,19.8864,19.8105,19.9623,19.8636,19.7725,19.7725,19.6358,19.5903,19.7497,19.7497,19.8105,19.9851,19.9851,19.9244,19.7877,19.7725,19.7118,19.5523,19.5143,19.5143,19.5143,19.5143,19.4384,19.2714,19.2486,19.165,18.998,19.1726,19.3473,19.5143,19.8484,20.0003,20.0003,19.8484,19.7725,16.6214,16.6897,16.7049,16.8719,16.9099,16.9023,16.8643,16.9327,17.039,17.1301,17.1529,17.206,17.3655,17.3958,17.4414,17.5705,17.6768,17.8287,18.064,18.0413,18.0033,18.0033,18.0033,18.0033,18.0033,18.0565,18.1628,18.3374,18.5044,18.6715,18.8385,18.9373,18.9904,18.9904,18.9904,18.9904,18.9904,18.9904,18.9904,18.9904,18.9904,18.9904,18.9904,18.9904,18.9904,18.9904,18.9904,18.9904,0.0,18.9904,19.0284,19.1043,19.2714,19.2714,19.2334,19.6738,19.7269,19.6358,19.9016,20.0003,20.0003,20.0003,20.0003,20.0003,20.0003,19.9244,19.8636,19.9623,20.0003,20.0003,20.0003,20.0003,20.0003,20.0003,19.9471,19.9244,19.9851,19.9471,19.9244,19.9851,19.9471,19.9016,19.9016,19.8484,19.8256,19.9016,19.9016,19.9244,20.0003,20.0003,19.9471,19.7725,19.7497,19.5903,19.2182,19.2789,19.3397,19.3397,19.4384,19.4232,19.2486,19.241,19.165,18.998,19.0512,19.1726,19.3397,19.4764,19.6358,19.8484,19.8864,19.9016,16.834,16.8871,16.8643,16.9782,17.0086,16.9782,16.8643,16.9251,17.039,17.1453,17.206,17.2744,17.3958,17.5022,17.5705,17.5705,17.7603,17.9501,18.064,18.0792,18.0792,18.0792,18.0337,18.0033,18.0033,18.0033,18.0944,18.3146,18.4361,18.6032,18.8234,18.9297,18.9904,18.9904,18.9904,18.9904,18.9904,18.9904,18.9904,18.9904,18.9904,18.9904,18.9904,18.9904,18.9904,0.0,18.9904,18.9904,18.9904,18.9904,18.9904,19.0056,19.1802,19.1423,19.0512,19.5523,19.6358,19.5371,19.8256,19.9623,19.9851,19.8864,19.8864,19.9016,19.8636,19.7725,19.7118,19.8636,19.9623,20.0003,20.0003,20.0003,20.0003,20.0003,19.9623,19.9471,19.9851,19.9623,19.9471,19.9851,20.0003,20.0003,20.0003,20.0003,20.0003,20.0003,20.0003,19.9851,19.9244,19.9623,19.9016,19.613,19.6358,19.4764,19.0284,19.0967,19.165,19.165,19.2714,19.2865,19.165,19.165,19.1119,18.9904,18.9904,19.0967,19.3245,19.3245,19.4991,19.8256,19.9471,20.0003,16.758,16.8795,17.0086,17.0086,17.0086,17.0086,17.0086,17.0086,17.0086,17.0086,17.1301,17.244,17.244,17.5173,17.7451,17.7451,18.0261,18.2463,18.2463,18.2539,18.2539,18.2539,18.102,18.0033,18.0033,18.0033,18.14,18.4741,18.5044,0.0,18.9676,18.9904,18.9904,18.9904,18.9904,18.9904,18.9904,18.9904,18.9904,18.9904,18.9904,18.9904,18.9904,18.9904,18.9904,18.9904,0.0,18.9904,0.0,18.9904,18.9904,19.0056,19.1726,19.1423,19.0512,19.5523,19.6358,19.5143,19.689,19.8636,19.9471,19.613,19.613,19.7118,19.5523,19.4991,19.5371,19.7118,19.8636,20.0003,20.0003,20.0003,20.0003,20.0003,19.8636,19.7877,19.9623,19.8636,19.8105,19.9623,20.0003,20.0003,20.0003,20.0003,20.0003,20.0003,20.0003,19.9471,19.7725,19.8864,19.8105,19.3017,19.3928,19.3549,19.0208,18.9904,18.9904,18.9904,18.9904,18.9904,18.9904,18.9904,18.9904,18.9904,18.998,19.165,19.4991,19.4991,19.6738,20.0003,20.0003,20.0003,16.9023,16.9706,17.0086,17.0086,17.0086,16.9782,16.8567,16.9251,17.0086,17.0086,17.1301,17.282,17.3958,17.4034,17.4338,17.5477,17.7527,17.897,17.897,18.102,18.2083,18.0868,18.0337,18.0033,18.0033,18.0033,18.0413,18.14,18.3678,18.55,18.6411,18.7626,18.8765,18.9904,18.9904,18.9904,18.9904,18.9904,18.9904,18.9904,18.9904,18.9904,18.9904,18.9904,18.9904,18.9904,18.9904,0.0,0.0,18.9904,18.9904,18.998,19.0436,19.036,19.0208,19.2941,19.3625,19.3625,19.651,19.7118,19.651,19.6738,19.6358,19.5371,19.3701,19.4764,19.689,19.7269,19.8636,20.0003,20.0003,20.0003,20.0003,20.0003,19.9623,19.9471,19.9851,19.9623,19.9471,19.9851,20.0003,19.9623,19.8484,19.8256,19.7877,19.6738,19.651,19.6358,19.5751,19.613,19.5371,19.2714,19.2865,19.2334,19.0132,18.9904,18.9904,18.9904,18.9904,18.9904,18.9904,19.1043,19.1726,19.1726,19.2865,19.3928,19.4991,19.4991,19.613,19.8256,19.7118,19.7725,16.9782,17.0086,17.0086,17.0086,17.0086,16.9782,16.8795,16.9327,17.0086,17.0086,17.1301,17.2744,17.3731,17.4186,17.4794,17.5781,17.7907,17.9501,17.9501,18.1248,18.2159,18.1096,18.0413,18.0033,18.0033,18.0033,18.0033,18.0033,18.2539,18.4057,18.4057,18.6335,18.8006,18.8993,18.96,18.9904,18.9904,18.9904,18.9904,18.9904,18.9904,18.9904,18.9904,18.9904,18.9904,18.9904,18.9904,0.0,0.0,18.9904,18.9904,18.9904,18.9904,18.9904,19.0132,19.1802,19.241,19.2714,19.4764,19.5143,19.4991,19.4612,19.3777,19.2789,19.1726,19.2865,19.4612,19.5371,19.613,19.7118,19.7877,19.8484,19.9016,19.9016,19.9471,19.9851,19.9244,19.9623,20.0003,20.0003,20.0003,19.9623,19.8636,19.8484,19.8105,19.7118,19.6358,19.5751,19.4991,19.4991,19.408,19.165,19.1423,19.1043,18.998,19.0512,19.0891,19.0891,19.1575,19.1954,19.1954,19.2941,19.3473,19.3473,19.4384,19.5371,19.5903,19.5371,19.5751,19.7497,19.5143,19.5371,17.0086,17.0086,17.0086,17.0086,17.0086,17.0162,17.0238,17.0162,17.0162,17.0314,17.1301,17.2212,17.2364,17.4946,17.7072,17.7224,18.0109,18.2235,18.2083,18.2311,18.2463,18.2311,18.0944,18.0033,18.0033,18.0033,18.0033,18.0033,18.14,18.2311,18.2311,18.55,18.7398,18.755,18.9069,18.9904,18.9904,18.9904,18.9904,18.9904,18.9904,18.9904,18.9904,18.9904,18.9904,18.9904,18.9904,0.0,0.0,18.9904,18.9904,18.9904,18.9904,18.9904,19.0132,19.165,19.2182,19.2258,19.241,19.3321,19.4004,19.1119,19.0132,19.0132,18.998,19.0056,19.0436,19.1802,19.2182,19.2562,19.408,19.5523,19.6738,19.6738,19.7877,19.8636,19.7269,19.8256,19.9471,19.9623,19.9851,19.9851,19.9851,19.9851,19.9851,19.9623,19.8256,19.6738,19.4991,19.4764,19.3625,19.0663,19.036,19.036,19.036,19.1802,19.2638,19.2638,19.408,19.4991,19.4991,19.4991,19.4991,19.4991,19.4991,19.5751,19.7269,19.5523,19.5523,19.689,19.3549,19.2865,17.0086,17.0086,17.0086,17.0086,17.0086,17.039,17.1605,17.0997,17.0466,17.1681,17.1225,17.0997,17.2212,17.3047,17.3958,17.5249,17.8363,18.0109,17.8742,18.0868,18.2007,18.0716,18.0185,18.0033,18.0033,18.0033,18.0033,18.0033,18.0337,18.0565,18.0565,18.3754,18.6183,18.755,18.9069,18.9904,18.9904,18.9904,18.9904,18.9904,18.9904,18.9904,18.9904,18.9904,18.9904,18.9904,18.9904,0.0,18.9904,18.9904,18.9904,18.9904,18.9904,18.9904,18.998,19.0284,19.0436,19.0663,19.1954,19.1802,19.1119,19.1726,19.1878,19.165,19.0284,19.0815,19.1726,19.0739,19.0436,19.0512,19.0891,19.1271,19.1575,19.1575,19.1802,19.2334,19.3321,19.3777,19.4764,19.7497,19.8105,19.8105,19.8105,19.8105,19.7497,19.6358,19.5751,19.4991,19.3169,19.3017,19.3245,19.3852,19.3852,19.3852,19.3852,19.4232,19.4384,19.4384,19.4764,19.4991,19.4991,19.4991,19.4991,19.4991,19.4991,19.5143,19.5523,19.3777,19.3169,19.3473,19.0132,18.9448,16.9858,17.0086,17.0086,17.0086,17.0086,17.0314,17.1149,17.0693,17.0314,17.1149,17.0618,17.0542,17.2136,17.3047,17.4186,17.5857,17.8363,17.9653,17.8818,18.0185,18.102,18.0109,18.0033,18.0033,18.0033,18.0033,18.0033,18.0033,18.0033,18.0033,18.0033,18.1703,18.3754,18.6335,18.793,18.9145,18.9904,18.9904,18.9904,18.9904,18.9904,18.9904,18.9904,18.9904,18.9904,18.9904,18.9904,18.9904,18.9904,18.9904,18.9904,18.9904,18.9904,18.9904,18.9904,18.9904,18.9904,19.0056,19.0891,19.0663,19.0056,19.0967,19.1271,19.1043,19.0208,19.0512,19.1043,19.0132,18.9904,18.9904,18.9904,18.9904,18.9904,18.9904,18.9373,18.9221,19.0891,19.1271,19.2258,19.5523,19.6358,19.6738,19.8484,19.8636,19.8484,19.7497,19.6738,19.5903,19.4991,19.4764,19.4991,19.4991,19.4991,19.4991,19.4991,19.5751,19.5751,19.4991,19.5751,19.5751,19.4991,19.4991,19.4991,19.4991,19.4991,19.4991,19.4991,19.3245,19.241,19.2182,18.9069,18.8385,16.9706,17.0086,17.0086,17.0086,17.0086,17.0162,17.0466,17.0314,17.0162,17.0466,17.0314,17.0542,17.2136,17.3807,17.5553,17.7603,17.935,18.0413,18.0413,18.0413,18.0337,18.0033,18.0033,18.0033,18.0033,18.0033,18.0033,0.0,18.0033,18.0033,18.0033,18.0033,18.14,18.4513,18.5956,18.7626,18.9448,18.9752,18.9904,18.9904,18.9904,18.9904,18.9904,18.9904,18.9904,18.9904,18.9904,0.0,18.9904,18.9904,18.9904,18.9904,18.9904,18.9904,18.9904,18.9904,18.9752,18.9524,18.9828,18.9752,18.9448,18.9145,18.9069,18.8993,18.8765,18.8613,18.8613,18.8613,18.8613,18.8689,18.8993,18.9069,18.9069,18.9069,18.7854,18.7019,18.8385,18.8613,18.9752,19.3397,19.4308,19.5523,19.9016,19.9851,20.0003,20.0003,19.8864,19.7877,19.7497,19.7725,19.7269,19.5523,19.5371,19.5371,19.5371,19.6358,19.651,19.4991,19.6358,19.651,19.4991,19.4764,19.4612,19.4612,19.4156,19.3852,19.3625,19.1802,19.0739,19.0132,18.737,18.6693,17.001,17.0086,17.0086,17.0086,17.0086,17.0466,17.1832,17.1073,17.0466,17.1832,17.1073,17.0542,17.2136,17.3807,17.6009,17.9122,18.1096,18.2159,18.2159,18.2159,18.1628,18.0185,18.0033,18.0033,18.0033,18.0033,18.0033,18.0033,18.0033,18.0033,18.0033,18.0033,18.0868,18.2767,18.307,18.4741,18.7854,18.9221,18.9904,18.9904,18.9904,18.9904,18.9904,18.9904,18.9904,18.9904,18.9904,18.9904,18.9904,18.9904,18.9904,18.9904,18.9904,18.9904,18.9904,18.9904,18.9069,18.8082,18.9448,18.8993,18.7626,18.6183,18.5728,18.5424,18.3981,18.3526,18.3526,18.3526,18.3526,18.383,18.5348,18.5728,18.5728,18.5728,18.4437,18.3222,18.345,18.3526,18.4893,18.9676,19.1802,19.3852,19.7269,19.9016,20.0003,20.0003,19.9851,19.9244,19.7725,19.8864,19.9016,19.7269,19.7118,19.7118,19.7118,19.5903,19.5143,19.4991,19.5143,19.5143,19.4991,19.3549,19.2789,19.2789,19.1119,18.9524,18.8082,18.6108,18.4437,18.2918,18.1012,18.0279,16.8112,16.8643,16.8871,16.9858,17.0086,17.0238,17.0997,17.0542,17.0314,17.0997,17.1225,17.1301,17.1149,17.3199,17.5097,17.5629,17.7148,17.8287,17.8287,17.9122,17.9426,17.8666,17.9426,18.0033,18.0033,18.0033,18.0033,18.0033,18.0033,18.0033,18.0033,18.0033,18.0337,18.1096,18.2007,18.3678,18.6108,18.8613,18.9904,18.9904,18.9904,18.9904,18.9904,18.9904,18.9904,18.9904,0.0,18.9904,18.9904,18.9904,18.9904,18.9904,18.9904,18.9373,18.8613,18.8613,18.755,18.6259,18.6943,18.6715,18.6032,18.5272,18.5044,18.4893,18.4209,18.3981,18.3981,18.3981,18.3981,18.4133,18.4893,18.5044,18.5044,18.5044,18.4513,18.3981,18.3981,18.3981,18.4285,18.5576,18.7171,18.9676,19.3928,19.5371,19.613,19.7118,19.8105,19.8105,19.6358,19.6738,19.651,19.4764,19.5523,19.5751,19.4764,19.4764,19.4612,19.3625,19.3549,19.3093,19.2182,19.1423,19.0512,18.9373,18.8537,18.7182,18.535,18.4474,18.3597,18.2733,18.2131,18.1801,16.6365,16.6897,16.7352,16.9023,16.9479,16.9554,17.001,17.0086,17.0086,17.0086,17.0693,17.0997,17.0238,17.1756,17.3047,17.3047,17.411,17.5097,17.5553,17.6692,17.7451,17.7451,17.8211,17.9046,17.9957,17.9577,17.9198,0.0,17.9122,17.935,17.935,17.9729,18.0033,18.0033,18.1248,18.2691,18.4361,18.6791,18.8461,18.9297,18.9297,18.9524,18.9904,18.9904,18.9904,18.9904,18.9904,18.9904,18.9904,18.9904,18.9904,18.9904,18.9904,18.9221,18.8158,18.8158,18.7171,18.55,18.4209,18.3754,18.3754,18.3754,18.3754,18.3754,18.3754,18.3754,18.383,18.4285,18.4437,18.4513,18.4969,18.5044,18.5044,18.5044,18.4741,18.4437,18.4437,18.4057,18.3526,18.2691,18.3905,18.6487,19.1043,19.2182,19.2865,19.4156,19.5371,19.5523,19.3928,19.408,19.3852,19.2562,19.3549,19.3852,19.2562,19.3169,19.3169,19.1878,19.1423,19.0663,18.9373,18.8917,18.793,18.6411,18.6291,18.5275,18.3337,18.3299,18.2903,18.2322,18.2472,18.2472,16.553,16.515,16.5606,16.7277,16.7732,16.8112,16.9706,17.0086,17.0086,17.0086,16.8871,16.8264,16.9782,16.8871,16.9479,17.4034,17.487,17.5477,17.7148,17.7451,17.7451,17.7451,17.6161,17.6464,17.9653,17.8514,17.692,17.5325,0.0,17.7603,17.7603,17.9122,18.0033,18.0033,18.0109,18.0944,18.2615,18.2842,18.4513,18.7702,18.7702,18.8461,18.9904,18.9904,18.9904,18.9904,18.9904,18.9904,18.9904,18.9904,18.9904,18.9904,18.9904,18.9828,18.9828,18.9828,18.8841,18.6791,18.1931,18.0261,18.0261,18.0261,18.0261,18.0261,18.0261,18.0261,18.0565,18.2159,18.2691,18.2994,18.4665,18.5044,18.5044,18.5044,18.383,18.2691,18.2691,18.14,18.0716,18.2235,18.3905,18.6108,18.9448,19.1347,19.2486,19.2562,19.2638,19.2106,19.0436,19.1575,19.2562,19.241,19.2486,19.2562,19.241,19.1043,19.0132,19.0056,18.8613,18.7778,18.7702,18.6183,18.5044,18.4589,18.4375,18.3311,18.1344,18.1043,18.014,17.8507,17.8507,17.8507,16.2948,16.181,16.0595,16.2265,16.348,16.4771,16.6441,16.6821,16.7428,16.963,16.963,16.9023,16.8567,16.8871,16.9023,16.8643,16.9479,17.039,17.0997,17.2895,17.4262,17.4262,17.4642,17.5401,17.6616,17.5249,0.0,17.487,17.5477,17.5857,17.5857,17.6388,17.7224,17.8363,17.8363,17.9729,18.2539,18.2539,18.3678,18.5956,18.5956,18.6259,18.6791,18.6791,18.6791,18.6867,18.793,18.7778,18.6867,18.8006,18.7778,18.6791,18.6791,18.6108,18.5196,18.5196,18.4133,18.2615,18.1855,18.1628,18.1476,18.0337,18.0033,18.0033,18.0033,18.0033,18.0109,18.0716,18.0868,18.102,18.1628,18.2615,18.345,18.345,18.3754,18.4133,18.4133,18.3678,18.3146,18.2615,18.2994,18.345,18.3526,18.4969,18.6791,18.8993,18.7474,18.6639,18.8234,18.8917,18.9297,18.9297,19.0208,19.0436,18.9373,18.9676,18.9904,18.9904,18.8461,18.755,18.755,18.5728,18.4057,18.2615,18.2338,18.1269,17.9258,17.9183,17.8807,17.8281,17.8281,17.8281,15.9987,15.9152,15.8469,15.9,16.0443,16.2113,16.3784,16.4619,16.5682,16.796,16.796,16.7352,16.6821,16.7201,16.7201,16.6062,16.6365,16.7125,16.8264,16.9327,17.0542,17.2212,17.244,17.3123,0.0,0.0,0.0,17.3199,17.3807,17.411,17.411,17.4642,17.5477,17.6616,17.6616,17.7679,17.9957,18.0565,18.1096,18.1703,18.3374,18.3602,18.2539,18.307,18.3374,18.345,18.4513,18.4361,18.345,18.5196,18.5196,18.4285,18.4817,18.4361,18.3374,18.3374,18.1552,17.9426,18.1096,18.1703,18.1476,18.0337,18.0033,18.0033,18.0033,18.0033,18.0033,18.0033,18.0033,18.0033,18.0033,18.0868,18.1703,18.1703,18.2539,18.3374,18.3374,18.3374,18.3222,18.2615,18.2539,18.2387,18.1779,18.2159,18.3298,18.5576,18.3981,18.3146,18.4817,18.55,18.6108,18.6639,18.8158,18.8461,18.6867,18.8234,18.8917,18.8309,18.6791,18.588,18.588,18.3905,18.2138,18.0754,18.044,17.9634,17.8281,17.8281,17.8281,17.8281,17.8281,17.8281,15.6646,15.7254,15.9304,15.7633,15.8469,16.0215,16.1885,16.3556,16.4771,16.4923,16.3632,16.2948,16.4619,16.3632,16.3556,16.6897,16.6062,16.6214,16.9479,16.7201,16.6973,17.1605,16.9479,16.9403,0.0,17.0314,16.8188,16.9782,17.1377,17.2288,17.2288,17.3883,17.4794,17.487,17.487,17.487,17.4946,17.6616,17.6616,17.5022,18.0033,18.064,17.7451,17.9122,17.9881,17.9881,17.9881,17.9881,17.9957,18.1703,18.2387,18.2463,18.4133,18.4741,18.4741,18.4741,18.1628,17.7603,17.9274,17.9881,17.9881,17.9881,17.9881,17.9881,17.9881,17.9881,17.9957,17.9957,17.9957,18.0033,18.0033,18.0033,18.0033,18.0033,18.0033,18.0033,18.0033,18.0033,18.0489,18.2159,18.2463,18.2994,18.4589,18.3526,18.2463,18.2463,18.2463,18.1855,18.0185,18.1476,18.3146,18.4893,18.6563,18.6867,18.5196,18.6563,18.6791,18.512,18.345,18.2539,18.2539,18.064,17.9406,17.9012,17.8732,17.8507,17.8281,17.8281,17.8281,17.8281,17.8281,17.8281,15.3381,15.3001,15.2698,15.2242,15.3381,15.5052,15.6646,15.7405,15.8772,16.2417,16.1885,16.1202,16.2873,16.2797,16.2797,16.3784,16.4543,16.5378,16.6289,16.7732,16.8264,16.7201,16.7352,16.758,16.7732,16.6517,16.591,16.6365,16.796,16.8871,16.8871,17.0542,17.1984,17.3047,17.3123,17.3731,17.4946,17.6616,17.6616,17.5022,17.7603,17.7755,17.5629,17.6161,17.6312,17.6388,17.7603,17.7451,17.6464,17.8135,17.8135,17.7072,17.7527,17.7755,17.7755,17.7755,17.6844,17.5705,17.6161,17.6312,17.6312,17.6312,17.6312,17.6312,17.6312,17.7224,17.8135,17.8135,17.9046,18.0033,18.0033,18.0033,18.0033,18.0033,18.0033,18.0033,18.0033,18.0033,18.0109,18.0565,18.0716,18.0868,18.1324,18.102,18.0716,18.0716,18.0716,18.0489,18.0033,18.1476,18.3146,18.4893,18.55,18.5576,18.512,18.55,18.5576,18.512,18.345,18.2539,18.2539,18.0337,17.9179,17.9012,17.8582,17.8356,17.8281,17.8281,17.8281,17.8281,17.8281,17.8281,15.2546,15.1862,14.9736,14.8294,14.9205,15.0875,15.2546,15.3457,15.4976,15.862,15.8544,15.862,16.0974,16.143,16.1885,16.3328,16.3784,16.4239,16.4923,16.553,16.5682,16.5075,16.5302,16.5075,16.4087,16.4619,16.4999,16.4999,16.6593,16.758,16.758,16.8491,16.9782,17.1377,17.1453,17.1908,17.2895,17.4566,17.4566,17.2971,17.5325,17.5173,17.2971,17.3579,17.3503,17.2971,17.3958,17.3807,17.3047,17.4718,17.4794,17.3958,17.4642,17.4946,17.487,17.4186,17.3883,17.3958,17.4718,17.4946,17.4946,17.4946,17.4946,17.5097,17.5781,17.6161,17.654,17.7299,17.8211,17.897,17.897,17.897,17.9122,17.9805,17.9426,17.9122,17.9881,18.0033,18.0033,18.0033,18.0033,18.0033,18.0033,18.0033,18.0033,18.0033,18.0033,18.0033,18.0033,18.0868,18.1855,18.2842,18.2918,18.2918,18.2918,18.3602,18.3678,18.2994,18.2007,18.1476,18.1476,17.9274,17.8041,17.8034,17.7529,17.7228,17.7228,17.7905,17.8281,17.8281,17.8281,17.7529,15.1635,15.1027,14.799,14.5181,14.556,14.7079,0.0,15.0268,15.1938,15.3457,15.414,15.5355,15.8544,15.9304,16.0443,16.3708,16.2948,16.2493,16.4239,16.2037,16.1126,16.3632,16.2948,16.2189,16.1961,16.3632,16.4771,16.4771,16.6517,16.758,16.758,16.7732,16.8643,17.0314,17.0314,17.0314,17.0314,17.2136,17.1984,17.0162,17.3427,17.3199,17.0162,17.1529,17.1377,17.0086,17.0086,17.0086,17.0238,17.1605,17.2136,17.2288,17.3807,17.4414,17.4262,17.2744,17.2136,17.2364,17.3883,17.4414,17.4414,17.4414,17.4414,17.4642,17.6161,17.5705,17.5022,17.6464,17.7072,17.7148,17.7148,17.7299,17.7831,17.9122,17.8438,17.7831,17.9122,17.9577,17.9729,17.9729,17.9881,18.0033,18.0033,18.0033,17.9881,17.9501,17.9426,17.9501,17.9653,17.9729,17.9805,17.9957,18.0033,18.0033,18.0033,18.14,18.1628,18.0109,17.9805,17.9729,17.9729,17.7603,17.6524,17.668,17.5896,17.5595,17.5745,17.7078,17.7755,17.7755,17.7755,17.6121,0.0,0.0,0.0,0.0,0.0,0.0,0.0,14.3206,14.4877,14.6547,14.9129,15.1635,15.3685,15.5052,15.657,15.862,15.862,15.9,16.0746,16.1582,16.0746,15.733,15.9,15.9911,15.8544,16.1202,16.3024,16.3024,16.5834,16.758,16.758,16.8871,17.0314,17.1908,17.1984,17.1984,17.1984,17.4946,17.4338,17.0162,17.3427,17.3199,17.0086,17.039,17.039,17.0086,17.0086,17.0086,17.0086,17.039,17.0542,17.0542,17.0921,17.1073,17.0997,17.0693,17.0542,17.0618,17.0921,17.1073,17.1073,17.1073,17.1073,17.1073,17.1453,17.2136,17.2971,17.3275,17.4414,17.5401,17.5401,17.6464,17.7224,17.6161,17.6692,17.7148,17.6161,17.6996,17.7983,17.7983,17.9046,18.0033,18.0033,18.0033,17.9046,17.6312,17.5933,17.6388,17.7755,17.7983,17.8514,17.9881,18.0033,18.0033,18.0033,18.0337,18.0337,18.0033,17.8742,17.7983,17.7983,17.6009,17.5538,17.671,17.5078,17.4725,17.5745,17.4843,17.4392,17.4392,17.4392,17.3941,0.0,0.0,0.0,0.0,0.0,0.0,0.0,0.0,0.0,0.0,0.0,14.5788,14.837,0.0,15.209,15.4596,15.5659,15.6494,15.733,15.8924,15.8696,15.5355,15.6418,15.7481,15.7481,15.9759,16.1582,16.2417,16.4847,16.6669,16.7504,16.834,16.9554,17.1225,17.1225,17.1225,17.1225,17.3731,17.3731,17.1301,17.2895,17.282,17.1225,17.0466,17.0086,17.0086,17.0086,17.0086,17.0086,17.0086,17.0086,17.0086,17.0086,17.0086,17.0086,17.0086,17.0086,17.0086,17.0086,17.0086,17.0086,17.0086,17.0086,17.0238,17.0997,17.1225,17.1377,17.2212,17.3047,17.3655,17.3655,17.4338,17.4946,17.4946,17.4946,17.4946,17.4946,17.6236,17.7224,17.6388,17.7603,17.8438,17.7603,17.7451,17.692,17.5173,17.4946,17.5249,17.6085,17.6236,17.6844,17.859,17.9501,18.0033,18.0033,18.0792,18.0565,17.8818,17.7148,17.6236,17.6236,17.5022,17.4297,17.4167,17.3777,17.3469,17.3318,17.3393,17.3393,17.3393,17.1611,17.0912,0.0,0.0,0.0,0.0,0.0,0.0,0.0,0.0,0.0,0.0,0.0,0.0,0.0,0.0,0.0,15.0648,15.247,15.3609,15.3913,15.5128,15.5507,15.414,15.452,15.5355,15.6418,15.8317,16.0215,16.1885,16.3556,16.5454,16.7428,16.758,16.8491,17.0466,17.0542,17.0542,17.0542,17.2136,17.2744,17.244,0.0,0.0,17.2364,17.0769,17.0086,17.0086,17.0086,17.0086,17.0086,17.0086,17.0086,17.001,16.9403,16.9099,16.9099,16.9099,16.9099,16.9175,16.9479,16.963,16.963,17.001,17.0086,17.0314,17.1605,17.1073,0.0,17.1605,17.1984,17.1984,17.1984,17.2212,17.2668,17.3731,17.3199,17.2744,17.3807,17.5325,17.6085,17.4718,17.5857,17.654,17.5173,17.4414,17.411,17.4414,17.449,17.4566,17.487,17.4946,17.5477,17.6844,17.8211,17.9046,17.9046,18.0868,18.0716,17.7679,17.6464,17.5477,17.4414,17.3655,17.2661,17.1612,17.2175,17.1912,17.0889,17.1942,17.2393,17.2318,16.828,16.6725,0.0,0.0,0.0,0.0,0.0,0.0,0.0,0.0,0.0,0.0,0.0,0.0,0.0,0.0,0.0,0.0,14.7231,14.8901,15.042,15.0799,15.0799,15.0648,15.3153,15.4444,15.3229,15.5963,15.8469,16.0139,16.181,16.4163,16.7352,0.0,0.0,0.0,0.0,17.2136,17.2136,17.3807,17.3883,17.244,17.244,17.244,17.2364,17.0769,17.0086,17.0086,17.0086,17.0086,17.0086,17.0086,17.0086,16.9782,16.6745,16.5606,16.5606,16.5606,16.5606,16.5834,16.7352,0.0,0.0,16.963,17.0086,17.0162,17.0314,17.0238,17.0162,17.0314,17.039,17.039,17.039,17.1377,17.2136,17.0921,17.1529,17.206,17.0845,17.1908,17.2895,17.2744,17.4034,17.5173,17.5022,17.2592,17.1073,17.2516,17.2744,17.3275,17.4718,17.4946,17.5022,17.5249,0.0,0.0,17.5477,17.8438,17.9501,17.7603,17.8666,17.7299,17.2592,17.0618,17.0167,17.1287,16.9962,16.9784,17.0889,16.9559,16.8882,16.8731,16.2465,16.1136,0.0,0.0,0.0,0.0,0.0,0.0,0.0,0.0,0.0,0.0,0.0,0.0,0.0,0.0,0.0,0.0,14.2827,14.4497,14.4269,14.5864,14.7534,14.8446,14.9812,15.1179,15.247,15.3837,15.5735,15.8317,16.0063,16.2113,16.4467,16.6517,16.8188,16.9554,17.0542,17.0618,16.963,17.1301,17.1301,16.963,16.963,16.963,16.9554,16.7884,16.7125,16.7125,16.7125,16.7125,16.7125,16.7125,16.7125,0.0,0.0,0.0,0.0,0.0,16.4999,16.515,16.5834,16.6062,16.6214,16.6897,16.7808,16.8643,16.8643,16.9327,17.0086,17.0086,17.0086,17.0086,17.0086,17.0542,17.0921,17.0238,17.0618,17.0845,17.0238,17.1301,17.2136,17.1225,17.2364,0.0,17.2288,17.0997,17.0314,17.0997,17.1073,17.1301,17.206,17.2136,17.244,17.3351,17.4338,17.4946,17.4946,17.7148,0.0,0.0,0.0,17.3908,17.0697,16.9608,0.0,0.0,0.0,0.0,0.0,0.0,0.0,0.0,15.8231,15.7705,0.0,0.0,0.0,0.0,0.0,0.0,0.0,0.0,0.0,0.0,0.0,0.0,0.0,0.0,0.0,0.0,0.0,14.1916,14.0169,14.2067,14.4421,14.6547,14.7231,14.8522,15.0951,15.1635,15.3077,15.5887,15.7633,15.9532,16.1658,16.4619,16.6214,16.6214,16.7808,16.7656,16.553,16.7125,16.758,16.6897,16.6365,16.6669,16.7504,16.5834,16.4999,16.4999,16.4999,16.4999,16.4999,16.4999,16.4999,16.4847,16.2948,16.2265,16.2341,16.2797,16.2948,16.3176,16.4543,16.5378,16.5834,16.6289,16.7277,16.8264,16.8264,16.9099,17.001,16.9554,16.9403,16.9327,16.8795,16.8719,16.8795,16.9327,16.9403,16.9554,17.001,17.0997,17.1453,17.0314,17.0618,17.0845,17.0238,17.0086,17.0238,17.0693,17.0693,0.0,17.0693,17.0693,17.0997,17.1681,17.2895,17.3579,17.3579,17.5553,17.5477,17.2516,17.2542,17.1894,17.0112,16.9333,16.8882,16.8656,16.6725,16.4771,0.0,0.0,0.0,0.0,0.0,0.0,0.0,0.0,0.0,0.0,0.0,0.0,0.0,0.0,0.0,0.0,0.0,0.0,0.0,0.0,0.0,0.0,0.0,0.0,14.0169,14.0017,14.1384,14.4725,14.6547,14.761,14.7686,14.9205,15.0875,15.2622,15.4216,15.657,15.9911,16.1734,16.2645,16.2645,16.4315,16.3556,16.0215,16.1885,16.3556,16.5075,16.3404,16.4391,16.7504,16.5834,16.4999,16.4999,16.4999,16.4999,16.4999,16.4999,16.4999,16.4391,15.7785,15.5203,15.5431,15.7102,15.7709,15.8393,16.3328,16.6138,16.7732,16.9403,16.9934,17.001,17.001,17.001,16.9706,16.8112,16.7656,16.7277,16.5606,16.515,16.5606,16.7277,16.7656,16.8112,16.9706,17.0162,17.0162,17.0086,16.8795,16.8188,16.9782,17.0086,17.0618,17.2136,17.2364,0.0,17.2364,17.2364,17.1756,17.0314,17.0238,17.0238,17.0238,17.3199,17.4186,17.2136,17.3588,17.3474,17.1265,16.9634,16.8581,16.8356,16.665,16.427,16.0998,0.0,0.0,0.0,0.0,0.0,0.0,0.0,0.0,0.0,0.0,0.0,0.0,0.0,0.0,0.0,0.0,0.0,0.0,0.0,0.0,0.0,0.0,0.0,0.0,0.0,14.1232,14.4573,14.351,14.2979,14.4042,14.5712,14.6927,14.7534,15.1179,15.3837,15.5052,15.7633,15.9683,16.0822,16.2493,16.2797,16.1658,16.1126,16.0595,15.9987,15.8317,15.8089,15.9152,15.862,15.8317,15.8317,15.8317,15.8317,15.8317,15.8317,15.8317,15.8089,15.5811,15.5583,15.6646,15.7254,15.8165,15.938,16.105,16.2037,16.2645,16.3176,16.4163,16.5302,16.6365,16.7504,16.8264,16.7732,16.758,16.7201,16.5454,16.4999,16.515,16.5758,16.591,16.6062,16.6593,16.6745,16.7049,16.8188,16.796,16.7352,16.6821,16.8643,16.9479,16.7808,16.9479,17.0845,17.0845,17.0845,17.0693,17.0162,17.0086,17.0086,17.0086,17.1073,17.1301,17.039,17.0725,17.0588,16.9634,16.8882,16.8431,16.8356,16.7829,16.3718,15.6077,0.0,0.0,0.0,0.0,0.0,0.0,0.0,0.0,0.0,0.0,0.0,0.0,0.0,0.0,0.0,0.0,0.0,0.0,0.0,0.0,0.0,0.0,0.0,0.0,0.0,0.0,14.2903,14.1308,0.0,14.146,14.2599,14.3434,14.4042,14.7686,15.042,15.1635,15.4216,15.6191,15.733,15.8924,15.9228,15.8089,15.7557,15.6798,15.5735,15.4596,15.4368,15.49,15.49,15.49,15.49,15.49,15.49,15.4824,15.3001,15.2318,15.2242,15.1635,15.2394,15.4065,15.5279,15.6798,15.8469,16.0215,16.0898,16.0974,16.1582,16.1278,16.0898,16.2037,16.2645,16.3024,16.3024,16.348,16.3708,16.2645,16.1885,16.1734,16.2948,16.3252,16.3556,16.4771,16.4999,16.515,16.5682,16.6214,16.6138,16.4467,16.6973,16.8264,16.5454,16.7428,16.9403,17.001,17.0086,17.0086,17.0086,17.0618,17.0921,17.0921,17.1453,17.1605,17.1225,17.0422,16.9859,16.9483,16.8731,16.7528,16.5748,16.5146,16.0535,0.0,0.0,0.0,0.0,0.0,0.0,0.0,0.0,0.0,0.0,0.0,0.0,0.0,0.0,0.0,0.0,0.0,0.0,0.0,0.0,0.0,0.0,0.0,0.0,0.0,0.0,0.0,13.9638,13.9638,0.0,0.0,0.0,0.0,14.184,14.3738,14.6168,14.9357,15.1103,15.209,15.2318,15.3761,15.3229,15.0344,15.1862,15.2622,15.2622,15.2546,15.3229,15.4672,15.4672,15.4672,15.4672,15.4672,15.4672,15.4292,14.9433,14.7383,14.7231,14.5484,14.5788,14.7686,15.1027,15.3229,15.5279,16.0291,16.2037,16.2265,16.3708,16.0898,15.6874,15.6646,15.5583,0.0,0.0,15.5735,15.7102,15.7178,15.6039,15.5659,15.9076,15.9759,16.0595,16.3936,16.4619,16.4087,0.0,16.3328,16.3936,16.2113,0.0,16.6365,16.4771,16.6214,16.8112,16.9858,17.0162,17.0238,17.0314,17.1605,17.244,17.2516,17.3958,17.4566,17.4034,17.254,17.134,17.0814,16.9107,16.5898,16.091,15.9107,0.0,0.0,0.0,0.0,0.0,0.0,0.0,0.0,0.0,0.0,0.0,0.0,0.0,0.0,0.0,0.0,0.0,0.0,0.0,0.0,0.0,0.0,0.0,0.0,0.0,0.0,13.5082,13.4854,13.7739,13.4854,13.212,0.0,0.0,0.0,0.0,0.0,0.0,14.2523,14.2979,14.4877,14.8673,14.9205,15.0799,15.3685,15.2926,15.2622,15.2546,15.1331,15.0951,15.1331,15.1331,15.1331,15.1331,15.1331,15.1331,15.1027,14.7231,14.5636,14.5332,14.2371,14.2295,14.4042,14.6168,14.799,14.9964,15.3761,15.5128,15.4824,15.2698,15.1103,14.9357,14.556,0.0,0.0,0.0,0.0,15.2242,15.3533,15.3533,15.3989,15.733,15.7178,15.6798,15.8924,15.938,15.8544,0.0,15.6418,15.6191,15.209,0.0,0.0,0.0,0.0,16.6745,16.9706,17.1073,17.2288,17.3579,17.2895,17.2895,17.4186,17.3579,17.282,17.2288,17.1902,17.0859,16.9032,16.7326,16.4118,15.9131,0.0,0.0,0.0,0.0,0.0,0.0,0.0,0.0,0.0,0.0,0.0,0.0,0.0,0.0,0.0,0.0,0.0,0.0,0.0,0.0,0.0,0.0,0.0,0.0,0.0,0.0,0.0,13.212,13.212,13.3943,13.1057,12.8552,0.0,0.0,0.0,0.0,0.0,0.0,0.0,0.0,0.0,14.4042,14.351,14.4421,14.7231,14.7838,14.7762,14.7079,14.761,14.8218,14.8977,14.8977,14.9357,15.004,15.004,14.8825,14.6547,14.389,14.2371,14.1384,0.0,0.0,0.0,0.0,14.1612,14.351,14.6168,14.7079,0.0,14.4801,0.0,0.0,0.0,0.0,0.0,0.0,0.0,0.0,0.0,0.0,15.2916,15.5446,15.5954,15.6146,15.7096,15.3229,14.9281,0.0,14.9357,14.9357,14.594,0.0,0.0,0.0,0.0,16.4315,16.8416,17.0997,17.3047,17.4794,17.4718,17.5022,17.6009,17.5173,17.4414,17.3883,17.2431,17.0333,16.7349,16.4268,15.9609,0.0,0.0,0.0,0.0,0.0,0.0,0.0,0.0,0.0,0.0,0.0,0.0,0.0,0.0,0.0,0.0,0.0,0.0,0.0,0.0,0.0,0.0,0.0,0.0,0.0,0.0,0.0,0.0,0.0,12.9387,12.9387,0.0,0.0,0.0,0.0,0.0,0.0,0.0,0.0,0.0,0.0,0.0,0.0,0.0,13.6904,13.7739,14.0473,14.1004,13.9334,14.2979,14.5181,14.6244,14.6395,14.7458,14.9053,14.8597,0.0,14.1991,13.9638,0.0,0.0,0.0,0.0,0.0,0.0,0.0,0.0,0.0,0.0,0.0,0.0,0.0,0.0,0.0,0.0,0.0,0.0,0.0,0.0,0.0,0.0,15.0607,15.2004,15.3898,15.5143,0.0,14.6454,13.9697,14.076,14.2368,0.0,0.0,0.0,0.0,0.0,0.0,0.0,16.6821,17.039,17.3123,17.5097,17.6161,17.692,17.7148,17.692,17.6464,17.5705,17.2313,16.8604,16.4634,15.9957,0.0,0.0,0.0,0.0,0.0,0.0,0.0,0.0,0.0,0.0,0.0,0.0,0.0,0.0,0.0,0.0,0.0,0.0,0.0,0.0,0.0,0.0,0.0,0.0,0.0,0.0,0.0,0.0,0.0,0.0,0.0,0.0,0.0,0.0,0.0,0.0,0.0,0.0,0.0,0.0,0.0,0.0,0.0,0.0,0.0,0.0,0.0,0.0,0.0,0.0,14.0625,14.1612,13.9258,14.0625,14.2219,14.3662,14.0852,13.9941,13.9941,13.4171,0.0,0.0,0.0,0.0,0.0,0.0,0.0,0.0,0.0,0.0,0.0,0.0,0.0,0.0,0.0,0.0,0.0,0.0,0.0,0.0,0.0,0.0,0.0,0.0,14.4316,14.5256,0.0,0.0,0.0,0.0,0.0,0.0,0.0,0.0,0.0,0.0,0.0,0.0,16.6517,17.039,17.3579,17.6692,17.4794,17.3883,17.5249,17.411,17.244,17.0542,16.6078,16.1737,0.0,0.0,0.0,0.0,0.0,0.0,0.0,0.0,0.0,0.0,0.0,0.0,0.0,0.0,0.0,0.0,0.0,0.0,0.0,0.0,0.0,0.0,0.0,0.0,0.0,0.0,0.0,0.0,0.0,0.0,0.0,0.0,0.0,0.0,0.0,0.0,0.0,0.0,0.0,0.0,0.0,0.0,0.0,0.0,0.0,0.0,0.0,0.0,0.0,0.0,0.0,0.0,0.0,0.0,0.0,0.0,0.0,0.0,0.0,13.2728,0.0,0.0,0.0,0.0,0.0,0.0,0.0,0.0,0.0,0.0,0.0,0.0,0.0,0.0,0.0,0.0,0.0,0.0,0.0,0.0,0.0,0.0,0.0,0.0,0.0,0.0,0.0,0.0,0.0,0.0,0.0,0.0,0.0,0.0,0.0,0.0,0.0,0.0,0.0,0.0,16.3936,17.0086,17.4718,17.7224,17.6009,17.5022,17.4946,17.2516,16.9706,16.6745,16.1768,0.0,0.0,0.0,0.0,0.0,0.0,0.0,0.0,0.0,0.0,0.0,0.0,0.0,0.0,0.0,0.0,0.0,0.0,0.0,0.0,0.0,0.0,0.0,0.0,0.0,0.0,0.0,0.0,0.0,0.0,0.0,0.0,0.0,0.0,0.0,0.0,0.0,0.0,0.0,0.0,0.0,0.0,0.0,0.0,0.0,0.0,0.0,0.0,0.0,0.0,0.0,0.0,0.0,0.0,0.0,0.0,0.0,0.0,0.0,13.0754,0.0,0.0,0.0,0.0,0.0,0.0,0.0,0.0,0.0,0.0,0.0,0.0,0.0,0.0,0.0,0.0,0.0,0.0,0.0,0.0,0.0,0.0,0.0,0.0,0.0,0.0,0.0,0.0,0.0,0.0,0.0,0.0,0.0,0.0,0.0,0.0,0.0,0.0,0.0,0.0,0.0,16.0974,16.8643,17.4186,17.6161,17.6085,17.5325,17.3883,17.0921,16.727,16.2807,15.695,0.0,0.0,0.0,0.0,0.0,0.0,0.0,0.0,0.0,0.0,0.0,0.0,0.0,0.0,0.0,0.0,0.0,0.0,0.0,0.0,0.0,0.0,0.0,0.0,0.0,0.0,0.0,0.0,0.0,0.0,0.0,0.0,0.0,0.0,0.0,0.0,0.0,0.0,0.0,0.0,0.0,0.0,0.0,0.0,0.0,0.0,0.0,0.0,0.0,0.0,0.0,0.0,0.0,0.0,0.0,0.0,0.0,0.0,0.0,0.0,0.0,0.0,0.0,0.0,0.0,0.0,0.0,0.0,0.0,0.0,0.0,0.0,0.0,0.0,0.0,0.0,0.0,0.0,0.0,0.0,0.0,0.0,0.0,0.0,0.0,0.0,0.0,0.0,0.0,0.0,0.0,0.0,0.0,0.0,0.0,0.0,0.0,0.0,0.0,0.0,0.0,15.8848,16.4771,16.9479,17.2592,17.1605,17.0542,17.001,16.8416,16.4443,15.7513,0.0,0.0,0.0,0.0,0.0,0.0,0.0,0.0,0.0,0.0,0.0,0.0,0.0,0.0,0.0,0.0,0.0,0.0,0.0,0.0,0.0,0.0,0.0,0.0,0.0,0.0,0.0,0.0,0.0,0.0,0.0,0.0,0.0,0.0,0.0,0.0,0.0,0.0,0.0,0.0,0.0,0.0,0.0,0.0,0.0,0.0,0.0,0.0,0.0,0.0,0.0,0.0,0.0,0.0,0.0,0.0,0.0,0.0,0.0,0.0,0.0,0.0,0.0,0.0,0.0,0.0,0.0,0.0,0.0,0.0,0.0,0.0,0.0,0.0,0.0,0.0,0.0,0.0,0.0,0.0,0.0,0.0,0.0,0.0,0.0,0.0,0.0,0.0,0.0,0.0,0.0,0.0,0.0,0.0,0.0,0.0,0.0,0.0,0.0,0.0,0.0,0.0,15.725,16.4543,16.9934,17.2212,17.0997,16.9554,16.8188,16.5531,16.0431,15.232,0.0,0.0,0.0,0.0,0.0,0.0,0.0,0.0,0.0,0.0,0.0,0.0,0.0,0.0,0.0,0.0,0.0,0.0,0.0,0.0,0.0,0.0,0.0,0.0,0.0,0.0,0.0,0.0,0.0,0.0,0.0,0.0,0.0,0.0,0.0,0.0,0.0,0.0,0.0,0.0,0.0,0.0,0.0,0.0,0.0,0.0,0.0,0.0,0.0,0.0,0.0,0.0,0.0,0.0,0.0,0.0,0.0,0.0,0.0,0.0,0.0,0.0,0.0,0.0,0.0,0.0,0.0,0.0,0.0,0.0,0.0,0.0,0.0,0.0,0.0,0.0,0.0,0.0,0.0,0.0,0.0,0.0,0.0,0.0,0.0,0.0,0.0,0.0,0.0,0.0,0.0,0.0,0.0,0.0,0.0,0.0,0.0,0.0,0.0,0.0,0.0,0.0,15.4131,16.2417,16.834,16.9934,16.9099,16.7884,16.6365,16.3387,15.773,14.8569,0.0,0.0,0.0,0.0,0.0,0.0,0.0,0.0,0.0,0.0,0.0,0.0,0.0,0.0,0.0,0.0,0.0,0.0,0.0,0.0,0.0,0.0,0.0,0.0,0.0,0.0,0.0,0.0,0.0,0.0,0.0,0.0,0.0,0.0,0.0,0.0,0.0,0.0,0.0,0.0,0.0,0.0,0.0,0.0,0.0,0.0,0.0,0.0,0.0,0.0,0.0,0.0,0.0,0.0,0.0,0.0,0.0,0.0,0.0,0.0,0.0,0.0,0.0,0.0,0.0,0.0,0.0,0.0,0.0,0.0,0.0,0.0,0.0,0.0,0.0,0.0,0.0,0.0,0.0,0.0,0.0,0.0,0.0,0.0,0.0,0.0,0.0,0.0,0.0,0.0,0.0,0.0,0.0,0.0,0.0,0.0,0.0,0.0,0.0,0.0,0.0,0.0,14.8892,15.6874,16.2873,16.4543,16.4695,16.4467,16.3936,16.2359,15.6953,0.0,0.0,0.0,0.0,0.0,0.0,0.0,0.0,0.0,0.0,0.0,0.0,0.0,0.0,0.0,0.0,0.0,0.0,0.0,0.0,0.0,0.0,0.0,0.0,0.0,0.0,0.0,0.0,0.0,0.0,0.0,0.0,0.0,0.0,0.0,0.0,0.0,0.0,0.0,0.0,0.0,0.0,0.0,0.0,0.0,0.0,0.0,0.0,0.0,0.0,0.0,0.0,0.0,0.0,0.0,0.0,0.0,0.0,0.0,0.0,0.0,0.0,0.0,0.0,0.0,0.0,0.0,0.0,0.0,0.0,0.0,0.0,0.0,0.0,0.0,0.0,0.0,0.0,0.0,0.0,0.0,0.0,0.0,0.0,0.0,0.0,0.0,0.0,0.0,0.0,0.0,0.0,0.0,0.0,0.0,0.0,0.0,0.0,0.0,0.0,0.0,0.0,0.0,14.8312,15.4767,16.0215,0.0,16.352,16.2686,16.2156,15.9548,15.4048,14.4992,0.0,0.0,0.0,0.0,0.0,0.0,0.0,0.0,0.0,0.0,0.0,0.0,0.0,0.0,0.0,0.0,0.0,0.0,0.0,0.0,0.0,0.0,0.0,0.0,0.0,0.0,0.0,0.0,0.0,0.0,0.0,0.0,0.0,0.0,0.0,0.0,0.0,0.0,0.0,0.0,0.0,0.0,0.0,0.0,0.0,0.0,0.0,0.0,0.0,0.0,0.0,0.0,0.0,0.0,0.0,0.0,0.0,0.0,0.0,0.0,0.0,0.0,0.0,0.0,0.0,0.0,0.0,0.0,0.0,0.0,0.0,0.0,0.0,0.0,0.0,0.0,0.0,0.0,0.0,0.0,0.0,0.0,0.0,0.0,0.0,0.0,0.0,0.0,0.0,0.0,0.0,0.0,0.0,0.0,0.0,0.0,0.0,0.0,0.0,0.0,0.0,0.0,0.0,15.239,15.8043,0.0,16.1027,16.0434,15.9332,15.7329,15.232,14.3238,0.0,0.0,0.0,0.0,0.0,0.0,0.0,0.0,0.0,0.0,0.0,0.0,0.0,0.0,0.0,0.0,0.0,0.0,0.0,0.0,0.0,0.0,0.0,0.0,0.0,0.0,0.0,0.0,0.0,0.0,0.0,0.0,0.0,0.0,0.0,0.0,0.0,0.0,0.0,0.0,0.0,0.0,0.0,0.0,0.0,0.0,0.0,0.0,0.0,0.0,0.0,0.0,0.0,0.0,0.0,0.0,0.0,0.0,0.0,0.0,0.0,0.0,0.0,0.0,0.0,0.0,0.0,0.0,0.0,0.0,0.0,0.0,0.0,0.0,0.0,0.0,0.0,0.0,0.0,0.0,0.0,0.0,0.0,0.0,0.0,0.0,0.0,0.0,0.0,0.0,0.0,0.0,0.0,0.0,0.0,0.0,0.0,0.0,0.0,0.0,0.0,0.0,0.0,15.0009,15.5866,15.6085,15.7532,15.7705,15.5901,15.56,15.1418,14.1754,13.7945,0.0,0.0,0.0,0.0,0.0,0.0,0.0,0.0,0.0,0.0,0.0,0.0,0.0,0.0,0.0,0.0,0.0,0.0,0.0,0.0,0.0,0.0,0.0,0.0,0.0,0.0,0.0,0.0,0.0,0.0,0.0,0.0,0.0,0.0,0.0,0.0,0.0,0.0,0.0,0.0,0.0,0.0,0.0,0.0,0.0,0.0,0.0,0.0,0.0,0.0,0.0,0.0,0.0,0.0,0.0,0.0,0.0,0.0,0.0,0.0,0.0,0.0,0.0,0.0,0.0,0.0,0.0,0.0,0.0,0.0,0.0,0.0,0.0,0.0,0.0,0.0,0.0,0.0,0.0,0.0,0.0,0.0,0.0,0.0,0.0,0.0,0.0,0.0,0.0,0.0,0.0,0.0,0.0,0.0,0.0,0.0,0.0,0.0,0.0,0.0,0.0,0.0,14.8279,15.1617,15.3904,15.4704,15.48,15.4199,15.2941,14.9031,14.1604,13.685,0.0,0.0,0.0,0.0,0.0,0.0,0.0,0.0,0.0,0.0,0.0,0.0,0.0,0.0,0.0,0.0,0.0,0.0,0.0,0.0,0.0,0.0,0.0,0.0,0.0,0.0,0.0,0.0,0.0,0.0,0.0,0.0,0.0,0.0,0.0,0.0,0.0,0.0,0.0,0.0,0.0,0.0,0.0,0.0,0.0,0.0,0.0,0.0,0.0,0.0,0.0,0.0,0.0,0.0,0.0,0.0,0.0,0.0,0.0,0.0,0.0,0.0,0.0,0.0,0.0,0.0,0.0,0.0,0.0,0.0,0.0,0.0,0.0,0.0,0.0,0.0,0.0,0.0,0.0,0.0,0.0,0.0,0.0,0.0,0.0,0.0,0.0,0.0,0.0,0.0,0.0,0.0,0.0,0.0,0.0,0.0,0.0,0.0,0.0,0.0,0.0,0.0,14.3016,14.6324,15.1766,15.3242,15.3392,15.2443,15.1559,14.7903,14.0477,13.5304,0.0,0.0,0.0,0.0,0.0,0.0,0.0,0.0,0.0,0.0,0.0,0.0,0.0,0.0,0.0,0.0,0.0,0.0,0.0,0.0,0.0,0.0,0.0,0.0,0.0,0.0,0.0,0.0,0.0,0.0,0.0,0.0,0.0,0.0,0.0,0.0,0.0,0.0,0.0,0.0,0.0,0.0,0.0,0.0,0.0,0.0,0.0,0.0,0.0,0.0,0.0,0.0,0.0,0.0,0.0,0.0,0.0,0.0,0.0,0.0,0.0,0.0,0.0,0.0,0.0,0.0,0.0,0.0,0.0,0.0,0.0,0.0,0.0,0.0,0.0,0.0,0.0,0.0,0.0,0.0,0.0,0.0,0.0,0.0,0.0,0.0,0.0,0.0,0.0,0.0,0.0,0.0,0.0,0.0,0.0,0.0,0.0,0.0,0.0,0.0,0.0,0.0,0.0,14.1555,14.9076,15.1679,15.2206,15.0806,15.043,14.6805,13.8705,0.0,0.0,0.0,0.0,0.0,0.0,0.0,0.0,0.0,0.0,0.0,0.0,0.0,0.0,0.0,0.0,0.0,0.0,0.0,0.0,0.0,0.0,0.0,0.0,0.0,0.0,0.0,0.0,0.0,0.0,0.0,0.0,0.0,0.0,0.0,0.0,0.0,0.0,0.0,0.0,0.0,0.0,0.0,0.0,0.0,0.0,0.0,0.0,0.0,0.0,0.0,0.0,0.0,0.0,0.0,0.0,0.0,0.0,0.0,0.0,0.0,0.0,0.0,0.0,0.0,0.0,0.0,0.0,0.0,0.0,0.0,0.0,0.0,0.0,0.0,0.0,0.0,0.0,0.0,0.0,0.0,0.0,0.0,0.0,0.0,0.0,0.0,0.0,0.0,0.0,0.0,0.0,0.0,0.0,0.0,0.0,0.0,0.0,0.0,0.0,0.0,0.0,0.0,0.0,0.0,14.4306,14.7497,14.9227,14.8881,14.7602,14.3828,13.6932,0.0,0.0,0.0,0.0,0.0,0.0,0.0,0.0,0.0,0.0,0.0,0.0,0.0,0.0]}],[{"header":{"parameterUnit":"kt","parameterCategory":2,"dx":1,"dy":1,"la1":29.285339999999998,"la2":30.599998999999997,"lo1":-89.70041500000002,"lo2":-87.6738589999976,"nx":112,"ny":82,"refTime":"2022-10-16T00:00:00:Z","depth":0,"parameterNumber":2,"parameterNumberName":"V-component_of_WINDS"},"data":[2.5341,2.551,0.0,2.4971,2.494,0.0,2.4379,0.0,0.0,0.0,0.0,0.0,0.0,0.0,0.0,2.4728,0.0,0.0,0.0,2.4284,0.0,0.0,0.0,0.0,0.0,0.0,0.0,0.0,0.0,0.0,0.0,0.0,2.7101,2.7539,2.775,2.7867,2.7835,2.7835,2.7835,2.7835,2.7835,2.7835,2.7835,2.7835,2.7835,2.7835,2.7835,2.7835,2.7835,2.7835,2.7888,2.7972,2.8004,2.8078,2.7298,2.1001,1.8749,1.7431,0.8263,0.4787,0.4797,0.5247,0.5273,0.5299,0.5315,0.5335,0.5361,0.5361,0.268,0.0,0.0,0.0,0.0,0.0,0.0,0.0,0.0,0.0,0.0,0.0,0.0,0.0,0.0,0.0,0.0,0.0,0.0,0.0,0.0,0.0,0.0,0.0,0.0,0.0,0.0,0.0,0.0,0.0,0.0,0.0,0.0,0.0,0.0,0.0,0.0,0.0,0.0,0.0,0.0,0.0,0.0,0.0,0.0,0.0,2.5214,2.4517,0.0,0.0,0.0,0.0,0.0,0.0,0.0,0.0,0.0,0.0,2.4337,0.0,0.0,0.0,0.0,0.0,0.0,0.0,0.0,0.0,0.0,0.0,0.0,0.0,0.0,0.0,0.0,2.3986,2.2733,2.2803,2.6056,2.792,2.7888,2.7888,2.7888,2.7888,2.7888,2.7867,2.7867,2.7867,2.7867,2.7867,2.7867,2.7888,2.7888,2.7888,2.7888,2.7888,2.792,2.5741,2.1798,1.2636,0.9143,0.8272,0.2178,0.0,0.0,0.0,0.0,0.0,0.0,0.0,0.0,0.0,0.0,0.0,0.0,0.0,0.0,0.0,0.0,0.0,0.0,0.0,0.0,0.0,0.0,0.0,0.0,0.0,0.0,0.0,0.0,0.0,0.0,0.0,0.0,0.0,0.0,0.0,0.0,0.0,0.0,0.0,0.0,0.0,0.0,0.0,0.0,0.0,0.0,0.0,0.0,0.0,0.0,0.0,0.0,0.0,0.0,0.0,0.0,2.383,0.0,0.0,0.0,0.0,2.401,0.0,0.0,0.0,0.0,0.0,0.0,0.0,0.0,0.0,0.0,0.0,0.0,0.0,0.0,0.0,0.0,0.0,0.0,0.0,0.0,0.0,2.5501,1.7828,1.3623,1.4602,2.3031,2.7538,2.7528,2.7528,2.7528,2.7528,2.7528,2.7507,2.7444,2.7507,2.7507,2.7444,2.7507,2.7528,2.7528,2.7528,2.7528,2.7528,2.7083,2.1364,1.2621,0.3488,0.0,0.0,0.0,0.0,0.0,0.0,0.0,0.0,0.0,0.0,0.0,0.0,0.0,0.0,0.0,0.0,0.0,0.0,0.0,0.0,0.0,0.0,0.0,0.0,0.0,0.0,0.0,0.0,0.0,0.0,0.0,0.0,0.0,0.0,0.0,0.0,0.0,0.0,0.0,0.0,0.0,0.0,0.0,0.0,0.0,0.0,0.0,0.0,0.0,0.0,0.0,0.0,0.0,0.0,0.0,0.0,2.402,0.0,0.0,0.0,0.0,0.0,0.0,0.0,0.0,0.0,0.0,0.0,0.0,0.0,0.0,0.0,0.0,2.4749,0.0,2.514,0.0,0.0,0.0,0.0,0.0,0.0,0.0,0.0,0.0,1.413,0.7697,0.511,0.983,2.349,2.6649,2.4467,1.7852,1.7852,1.7852,1.7852,1.7852,1.7852,1.7839,2.4883,2.4005,1.7832,1.7852,1.7852,1.7852,1.7852,1.7852,1.6977,1.044,0.6094,0.3488,0.0873,0.0,0.0,0.0,0.0,0.0,0.0,0.0,0.0,0.0,0.0,0.0,0.0,0.0,0.0,0.0,0.0,0.0,0.0,0.0,0.0,0.0,0.0,0.0,0.0,0.0,0.0,0.0,0.0,0.0,0.0,0.0,0.0,0.0,0.0,0.0,0.0,0.0,0.0,0.0,0.0,0.0,0.0,0.0,0.0,0.0,0.0,0.0,0.0,0.0,0.0,0.0,0.0,0.0,0.0,0.0,0.0,0.0,0.0,0.0,0.0,0.0,0.0,2.3671,0.0,2.3819,0.0,0.0,0.0,0.0,0.0,0.0,0.0,2.4601,0.0,0.0,0.0,2.4579,0.0,0.0,0.0,0.0,0.0,0.0,0.0,1.0835,0.5407,0.0427,0.0,0.512,1.571,1.6103,1.347,0.8272,0.8272,0.8272,0.8272,0.8272,1.2196,1.9626,1.7445,1.3071,0.8263,0.8272,0.8272,0.8272,0.8272,0.8272,0.7399,0.2178,0.0,0.0,0.0,0.0,0.0,0.0,0.0,0.0,0.0,0.0,0.0,0.0,0.0,0.0,0.0,0.0,0.0,0.0,0.0,0.0,0.0,0.0,0.0,0.0,0.0,0.0,0.0,0.0,0.0,0.0,0.0,0.0,0.0,0.0,0.0,0.0,0.0,0.0,0.0,0.0,0.0,0.0,0.0,0.0,0.0,0.0,0.0,0.0,0.0,0.0,0.0,0.0,0.0,0.0,0.0,0.0,0.0,0.0,0.0,0.0,0.0,0.0,0.0,2.3777,0.0,0.0,0.0,0.0,2.3893,0.0,0.0,0.0,0.0,0.0,0.0,0.0,0.0,2.551,0.0,0.0,0.0,0.0,0.0,0.0,1.3512,1.599,0.1259,0.0,0.0,0.0,0.0,0.0,0.0,0.0,0.0,0.0,0.0,0.0,0.0,0.0,0.8724,2.405,0.7416,0.0,0.0,0.0,0.0,0.0,0.0,0.0,0.0,0.0,0.0,0.0,0.0,0.0,0.0,0.0,0.0,0.0,0.0,0.0,0.0,0.0,0.0,0.0,0.0,0.0,0.0,0.0,0.0,0.0,0.0,0.0,0.0,0.0,0.0,0.0,0.0,0.0,0.0,0.0,0.0,0.0,0.0,0.0,0.0,0.0,0.0,0.0,0.0,0.0,0.0,0.0,0.0,0.0,0.0,0.0,0.0,0.0,0.0,0.0,0.0,0.0,0.0,0.0,0.0,0.0,0.0,0.0,0.0,0.0,0.0,0.0,0.0,0.0,2.3819,0.0,0.0,0.0,0.0,0.0,0.0,0.0,0.0,0.0,0.0,0.0,0.0,0.0,0.0,0.0,0.0,0.0,0.0,0.0,0.2972,0.3385,0.042,0.0,0.0,0.0,0.0,0.0,0.0,0.0,0.0,0.0,0.0,0.0,0.0,0.0,0.1745,0.5233,0.1745,0.0,0.0,0.0,0.0,0.0,0.0,0.0,0.0,0.0,0.0,0.0,0.0,0.0,0.0,0.0,0.0,0.0,0.0,0.0,0.0,0.0,0.0,0.0,0.0,0.0,0.0,0.0,0.0,0.0,0.0,0.0,0.0,0.0,0.0,0.0,0.0,0.0,0.0,0.0,0.0,0.0,0.0,0.0,0.0,0.0,0.0,0.0,0.0,0.0,0.0,0.0,0.0,0.0,0.0,0.0,0.0,0.0,0.0,0.0,0.0,0.0,0.0,0.0,0.0,0.0,0.0,0.0,0.0,0.0,0.0,0.0,2.269,0.0,0.0,0.0,2.3883,2.421,2.4813,2.4739,2.4707,2.5204,2.5373,2.5426,0.0,0.0,0.0,0.0,0.0,0.0,0.0,0.0,0.0,0.0,0.0,0.0,0.0,0.0,0.0,0.0,0.0,0.0,0.0,0.0,0.0,0.0,0.0,0.0,0.0,0.0,0.0,0.0,0.0,0.0,0.0,0.0,0.0,0.0,0.0,0.0,0.0,0.0,0.0,0.0,0.0,0.0,0.0,0.0,0.0,0.0,0.0,0.0,0.0,0.0,0.0,0.0,0.0,0.0,0.0,0.0,0.0,0.0,0.0,0.0,0.0,0.0,0.0,0.0,0.0,0.0,0.0,0.0,0.0,0.0,0.0,0.0,0.0,0.0,0.0,0.0,0.0,0.0,0.0,0.0,0.0,0.0,0.0,0.0,0.0,0.0,0.0,0.0,0.0,0.0,0.0,0.0,0.0,0.0,0.0,0.0,0.0,2.0535,2.0602,2.0428,0.0,0.0,0.0,1.9211,2.157,2.4105,0.0,2.3142,2.201,2.2547,2.2754,0.0,0.0,0.0,0.0,0.0,0.0,0.0,0.0,0.0,0.0,0.0,0.0,0.0,0.0,0.0,0.0,0.0,0.0,0.0,0.0,0.0,0.0,0.0,0.0,0.0,0.0,0.0,0.0,0.0,0.0,0.0,0.0,0.0,0.0,0.0,0.0,0.0,0.0,0.0,0.0,0.0,0.0,0.0,0.0,0.0,0.0,0.0,0.0,0.0,0.0,0.0,0.0,0.0,0.0,0.0,0.0,0.0,0.0,0.0,0.0,0.0,0.0,0.0,0.0,0.0,0.0,0.0,0.0,0.0,0.0,0.0,0.0,0.0,0.0,0.0,0.0,0.0,0.0,0.0,0.0,0.0,0.0,0.0,0.0,0.0,0.0,0.0,0.0,0.0,0.0,0.0,0.0,0.0,0.0,0.0,0.0,0.0,0.0,1.238,1.2469,1.228,1.2506,1.2856,0.0,0.4218,1.4315,2.5035,0.0,2.0117,1.433,1.4377,1.4394,0.0,0.0,0.0,0.0,0.0,0.0,0.0,0.0,0.0,0.0,0.0,0.0,0.0,0.0,0.0,0.0,0.0,0.0,0.0,0.0,0.0,0.0,0.0,0.0,0.0,0.0,0.0,0.0,0.0,0.0,0.0,0.0,0.0,0.0,0.0,0.0,0.0,0.0,0.0,0.0,0.0,0.0,0.0,0.0,0.0,0.0,0.0,0.0,0.0,0.0,0.0,0.0,0.0,0.0,0.0,0.0,0.0,0.0,0.0,0.0,0.0,0.0,0.0,0.0,0.0,0.0,0.0,0.0,0.0,0.0,0.0,0.0,0.0,0.0,0.0,0.0,0.0,0.0,0.0,0.0,0.0,0.0,0.0,0.0,0.0,0.0,0.0,0.0,0.0,0.0,0.0,0.0,0.0,0.0,0.0,0.0,0.0,0.0,0.473,0.4472,0.4573,0.4586,0.0,0.0,1.2541,1.8893,2.1161,0.0,0.8111,0.5681,0.5362,1.4017,2.2241,0.0,0.0,0.0,0.0,0.0,0.0,0.0,0.0,0.0,0.0,0.0,0.0,0.0,0.0,0.0,0.0,0.0,0.0,0.0,0.0,0.0,0.0,0.0,0.0,0.0,0.0,0.0,0.0,0.0,0.0,0.0,0.0,0.0,0.0,0.0,0.0,0.0,0.0,0.0,0.0,0.0,0.0,0.0,0.0,0.0,0.0,0.0,0.0,0.0,0.0,0.0,0.0,0.0,0.0,0.0,0.0,0.0,0.0,0.0,0.0,0.0,0.0,0.0,0.0,0.0,0.0,0.0,0.0,0.0,0.0,0.0,0.0,0.0,0.0,0.0,0.0,0.0,0.0,0.0,0.0,0.0,0.0,0.0,0.0,0.0,0.0,0.0,0.0,0.0,0.0,0.0,0.0,0.0,0.0,0.0,0.0,0.0,0.0,0.0,0.0,0.0,0.0,0.0,1.4575,1.6701,1.2983,0.2423,0.0,0.0,0.0,1.0659,1.9166,0.0,0.0,0.0,0.0,0.0,0.0,0.0,0.0,0.0,0.0,0.0,0.0,0.0,0.0,0.0,0.0,0.0,0.0,0.0,0.0,0.0,0.0,0.0,0.0,0.0,0.0,0.0,0.0,0.0,0.0,0.0,0.0,0.0,0.0,0.0,0.0,0.0,0.0,0.0,0.0,0.0,0.0,0.0,0.0,0.0,0.0,0.0,0.0,0.0,0.0,0.0,0.0,0.0,0.0,0.0,0.0,0.0,0.0,0.0,0.0,0.0,0.0,0.0,0.0,0.0,0.0,0.0,0.0,0.0,0.0,0.0,0.0,0.0,0.0,0.0,0.0,0.0,0.0,0.0,0.0,0.0,0.0,0.0,0.0,0.0,0.0,0.0,0.0,0.0,0.0,0.0,0.0,0.0,0.0,0.0,0.0,0.0,0.0,0.0,0.0,0.0,0.0,0.0,0.0403,0.0806,0.0401,0.0,0.0,0.0,0.0,0.0406,0.0805,0.0,0.0,0.0,0.0,0.0,0.0,0.0,0.0,0.0,0.0,0.0,0.0,0.0,0.0,0.0,0.0,0.0,0.0,0.0,0.0,0.0,0.0,0.0,0.0,0.0,0.0,0.0,0.0,0.0,0.0,0.0,0.0,0.0,0.0,0.0,0.0,0.0,0.0,0.0,0.0,0.0,0.0,0.0,0.0,0.0,0.0,0.0,0.0,0.0,0.0,0.0,0.0,0.0,0.0,0.0,0.0,0.0,0.0,0.0,0.0,0.0,0.0,0.0,0.0,0.0,0.0,0.0,0.0,0.0,0.0,0.0,0.0,0.0,0.0,0.0,0.0,0.0,0.0,0.0,0.0,0.0,0.0,0.0,0.0,0.0,0.0,0.0,0.0,0.0,0.0,0.0,0.0,0.0,0.0,0.0,0.0,0.0,0.0,0.0,0.0,0.0,0.0,0.0,0.0,0.0,0.0,0.0,0.0,0.0,0.0,0.0,0.0,0.0,0.0,0.0,0.0,0.0,0.0,0.0,0.0,0.0,0.0,0.0,0.0,0.0,0.0,0.0,0.0,0.0,0.0,0.0,0.0,0.0,0.0,0.0,0.0,0.0,0.0,0.0,0.0,0.0,0.0,0.0,0.0,0.0,0.0,0.0,0.0,0.0,0.0,0.0,0.0,0.0,0.0,0.0,0.0,0.0,0.0,0.0,0.0,0.0,0.0,0.0,0.0,0.0,0.0,0.0,0.0,0.0,0.0,0.0,0.0,0.0,0.0,0.0,0.0,0.0,0.0,0.0,0.0,0.0,0.0,0.0,0.0,0.0,0.0,0.0,0.0,0.0,0.0,0.0,0.0,0.0,0.0,0.0,0.0,0.0,0.0,0.0,0.0,0.0,0.0,0.0,0.0,0.0,0.0,0.0,0.0,0.0,0.0,0.0,0.0,0.0,0.0,0.0,0.0,0.0,0.0,0.0,0.0,0.0,0.0,0.0,0.0,0.0,0.0,0.0,0.0,0.0,0.0,0.0,0.0,0.0,0.0,0.0,0.0,0.0,0.0,0.0,0.0,0.0,0.0,0.0,0.0,0.0,0.0,0.0,0.0,0.0,0.0,0.0,0.0,0.0,0.0,0.0,0.0,0.0,0.0,0.0,0.0,0.0,0.0,0.0,0.0,0.0,0.0,0.0,0.0,0.0,0.0,0.0,0.0,0.0,0.0,0.0,0.0,0.0,0.0,0.0,0.0,0.0,0.0,0.0,0.0,0.0,0.0,0.0,0.0,0.0,0.0,0.0,0.0,0.0,0.0,0.0,0.0,0.0,0.0,0.0,0.0,0.0,0.0,0.0,0.0,0.0,0.0,0.0,0.0,0.0,0.0,0.0,0.0,0.0,0.0,0.0,0.0,0.0,0.0,0.0,0.0,0.0,0.0,0.0,0.0,0.0,0.0,0.0,0.0,0.0,0.0,0.0,0.0,0.0,0.0,0.0,0.0,0.0,0.0,0.0,0.0,0.0,0.0,0.0,0.0,0.0,0.0,0.0,0.0,0.0,0.0,0.0,0.0,0.0,0.0,0.0,0.0,0.0,0.0,0.0,0.0,0.0,0.0,0.0,0.0,0.0,0.0,0.0,0.0,0.0,0.0,0.0,0.0,0.0,0.0,0.0,0.0,0.0,0.0,0.0,0.0,0.0,0.0,0.0,0.0,0.0,0.0,0.0,0.0,0.0,0.0,0.0,0.0,0.0,0.0,0.0,0.0,0.0,0.0,0.0,0.0,0.0,0.0,0.0,0.0,0.0,0.0,0.0,0.0,0.0,0.0,0.0,0.0,0.0,0.0,0.0,0.0,0.0,0.0,0.0,0.0,0.0,0.0,0.0,0.0,0.0,0.0,0.0,0.0,0.0,0.0,0.0,0.0,0.0,0.0,0.0,0.0,0.0,0.0,0.0,0.0,0.0,0.0,0.0,0.0,0.0,0.0,0.0,0.0,0.0,0.0,0.0,0.0,0.0,0.0,0.0,0.0,0.0,0.0,0.0,0.0,0.0,0.0,0.0,0.0,0.0,0.0,0.0,0.0,0.0,0.0,0.0,0.0,0.0,0.0,0.0,0.0,0.0,0.0,0.0,0.0,0.0,0.0,0.0,0.0,0.0,0.0,0.0,0.0,0.0,0.0,0.0,0.0,0.0,0.0,0.0,0.0,0.0,0.0,0.0,0.0,0.0,0.0,0.0,0.0,0.0,0.0,0.0,0.0,0.0,0.0,0.0,0.0,0.0,0.0,0.0,0.0,0.0,0.0,0.0,0.0,0.0,0.0,0.0,0.0,0.0,0.0,0.0,0.0,0.0,0.0,0.0,0.0,0.0,0.0,0.0,0.0,0.0,0.0,0.0,0.0,0.0,0.0,0.0,0.0,0.0,0.0,0.0,0.0,0.0,0.0,0.0,0.0,0.0,0.0,0.0,0.0,0.0,0.0,0.0,0.0,0.0,0.0,0.0,0.0,0.0,0.0,0.0,0.0,0.0,0.0,0.0,0.0,0.0,0.0,0.0,0.0,0.0,0.0,0.0,0.0,0.0,0.0,0.0,0.0,0.0,0.0,0.0,0.0,0.0,0.0,0.0,0.0,0.0,0.0,0.0,0.0,0.0,0.0,0.0,0.0,0.0,0.0,0.0,0.0,0.0,0.0,0.0,0.0,0.0,0.0,0.0,0.0,0.0,0.0,0.0,0.0,0.0,0.0,0.0,0.0,0.0,0.0,0.0,0.0,0.0,0.0,0.0,0.0,0.0,0.0,0.0,0.0,0.0,0.0,0.0,0.0,0.0,0.0,0.0,0.0,0.0,0.0,0.0,0.0,0.0,0.0,0.0,0.0,0.0,0.0,0.0,0.0,0.0,0.0,0.0,0.0,0.0,0.0,0.0,0.0,0.0,0.0,0.0,0.0,0.0,0.0,0.0,0.0,0.0,0.0,0.0,0.0,0.0,0.0,0.0,0.0,0.0,0.0,0.0,0.0,0.0,0.0,0.0,0.0,0.0,0.0,0.0,0.0,0.0,0.0,0.0,0.0,0.0,0.0,0.0,0.0,0.0,0.0,0.0,0.0,0.0,0.0,0.0,0.0,0.0,0.0,0.0,0.0,0.0,0.0,0.0,0.0,0.0,0.0,0.0,0.0,0.0,0.0,0.0,0.0,0.0,0.0,0.0,0.0,0.0,0.0,0.0,0.0,0.0,0.0,0.0,0.0,0.0,0.0,0.0,0.0,0.0,0.0,0.0,0.0,0.0,0.0,0.0,0.0,0.0,0.0,0.0,0.0,0.0,0.0,0.0,0.0,0.0,0.0,0.0,0.0,0.0,0.0,0.0,0.0,0.0,0.0,0.0,0.0,0.0,0.0,0.0,0.0,0.0,0.0,0.0,0.0,0.0,0.0,0.0,0.0,0.0,0.0,0.0,0.0,0.0,0.0,0.0,0.0,0.0,0.0,0.0,0.0,0.0,0.0,0.0,0.0,0.0,0.0,0.0,0.0,0.0,0.0,0.0,0.0,0.0,0.0,0.0,0.0,0.0,0.0,0.0,0.0,0.0,0.0,0.0,0.0,0.0,0.0,0.0,0.0,0.0,0.0,0.0,0.0,0.0,0.0,0.0,0.0,0.0,0.0,0.0,0.0,0.0,0.0,0.0,0.0,0.0,0.0,0.0,0.0,0.0,0.0,0.0,0.0,0.0,0.0,0.0,0.0,0.0,0.0,0.0,0.0,0.0,0.0,0.0,0.0,0.0,0.0,0.0,0.0,0.0,0.0,0.0,0.0,0.0,0.0,0.0,0.0,0.0,0.0,0.0,0.0,0.0,0.0,0.0,0.0,0.0,0.0,0.0,0.0,0.0,0.0,0.0,0.0,0.0,0.0,0.0,0.0,0.0,0.0,0.0,0.0,0.0,0.0,0.0,0.0,0.0,0.0,0.0,0.0,0.0,0.0,0.0,0.0,0.0,0.0,0.0,0.0,0.0,0.0,0.0,0.0,0.0,0.0,0.0,0.0,0.0,0.0,0.0,0.0,0.0,0.0,0.0,0.0,0.0,0.0,0.0,0.0,0.0,0.0,0.0,0.0,0.0,0.0,0.0,0.0,0.0,0.0,0.0,0.0,0.0,0.0,0.0,0.0,0.0,0.0,0.0,0.0,0.0,0.0,0.0,0.0,0.0,0.0,0.0,0.0,0.0,0.0,0.0,0.0,0.0,0.0,0.0,0.0,0.0,0.0,0.0,0.0,0.0,0.0,0.0,0.0,0.0,0.0,0.0,0.0,0.0,0.0,0.0,0.0,0.0,0.0,0.0,0.0,0.0,0.0,0.0,0.0,0.0,0.0,0.0,0.0,0.0,0.0,0.0,0.0,0.0,0.0,0.0,0.0,0.0,0.0,0.0,0.0,0.0,0.0,0.0,0.0,0.0,0.0,0.0,0.0,0.0,0.0,0.0,0.0,0.0,0.0,0.0,0.0,0.0,0.0,0.0,0.0,0.0,0.0,0.0,0.0,0.0,0.0,0.0,0.0,0.0,0.0,0.0,0.0,0.0,0.0,0.0,0.0,0.0,0.0,0.0,0.0,0.0,0.0,0.0,0.0,0.0,0.0,0.0,0.0,0.0,0.0,0.0,0.0,0.0,0.0,0.0,0.0,0.0,0.0,0.0,0.0,0.0,0.0,0.0,0.0,0.0,0.0,0.0,0.0,0.0,0.0,0.0,0.0,0.0,0.0,0.0,0.0,0.0,0.0,0.0,0.0,0.0,0.0,0.0,0.0,0.0,0.0,0.0,0.0,0.0,0.0,0.0,0.0,0.0,0.0,0.0,0.0,0.0,0.0,0.0,0.0,0.0,0.0,0.0,0.0,0.0,0.0,0.0,0.0,0.0,0.0,0.0,0.0,0.0,0.0,0.0,0.0,0.0,0.0,0.0,0.0,0.0,0.0,0.0,0.0,0.0,0.0,0.0,0.0,0.0,0.0,0.0,0.0,0.0,0.0,0.0,0.0,0.0,0.0,0.0,0.0,0.0,0.0,0.0,0.0,0.0,0.0,0.0,0.0,0.0,0.0,0.0,0.0,0.0,0.0,0.0,0.0,0.0,0.0,0.0,0.0,0.0,0.0,0.0,0.0,0.0,0.0,0.0,0.0,0.0,0.0,0.0,0.0,0.0,0.0,0.0,0.0,0.0,0.0,0.0,0.0,0.0,0.0,0.0,0.0,0.0,0.0,0.0,0.0,0.0,0.0,0.0,0.0,0.0,0.0,0.0,0.0,0.0,0.0,0.0,0.0,0.0,0.0,0.0,0.0,0.0,0.0,0.0,0.0,0.0,0.0,0.0,0.0,0.0,0.0,0.0,0.0,0.0,0.0,0.0,0.0,0.0,0.0,0.0,0.0,0.0,0.0,0.0,0.0,0.0,0.0,0.0,0.0,0.0,0.0,0.0,0.0,0.0,0.0,0.0,0.0,0.0,0.0,0.0,0.0,0.0,0.0,0.0,0.0,0.0,0.0,0.0,0.0,0.0,0.0,0.0,0.0,0.0,0.0,0.0,0.0,0.0,0.0,0.0,0.0,0.0,0.0,0.0,0.0,0.0,0.0,0.0,0.0,0.0,0.0,0.0,0.0,0.0,0.0,0.0,0.0,0.0,0.0,0.0,0.0,0.0,0.0,0.0,0.0,0.0,0.0,0.0,0.0,0.0,0.0,0.0,0.0,0.0,0.0,0.0,0.0,0.0,0.0,0.0,0.0,0.0,0.0,0.0,0.0,0.0,0.0,0.0,0.0,0.0,0.0,0.0,0.0,0.0,0.0,0.0,0.0,0.0,0.0,0.0,0.0,0.0,0.0,0.0,0.0,0.0,0.0,0.0,0.0,0.0,0.0,0.0,0.0,0.0,0.0,0.0,0.0,0.0,0.0,0.0,0.0,0.0,0.0,0.0,0.0,0.0,0.0,0.0,0.0,0.0,0.0,0.0,0.0,0.0,0.0,0.0,0.0,0.0,0.0,0.0,0.0,0.0,0.0,0.0,0.0,0.0,0.0,0.0,0.0,0.0,0.0,0.0,0.0,0.0,0.0,0.0,0.0,0.0,0.0,0.0,0.0,0.0,0.0,0.0,0.0,0.0,0.0,0.0,0.0,0.0,0.0,0.0,0.0,0.0,0.0,0.0,0.0,0.0,0.0,0.0,0.0,0.0,0.0,0.0,0.0,0.0,0.0,0.0,0.0,0.0,0.0,0.0,0.0,0.0,0.0,0.0,0.0,0.0,0.0,0.0,0.0,0.0,0.0,0.0,0.0,0.0,0.0,0.0,0.0,0.0,0.0,0.0,0.0,0.0,0.0,0.0,0.0,0.0,0.0,0.0,0.0,0.0,0.0,0.0,0.0,0.0,0.0,0.0,0.0,0.0,0.0,0.0,0.0,0.0,0.0,0.0,0.0,0.0,0.0,0.0,0.0,0.0,0.0,0.0,0.0,0.0,0.0,0.0,0.0,0.0,0.0,0.0,0.0,0.0,0.0,0.0,0.0,0.0,0.0,0.0,0.0,0.0,0.0,0.0,0.0,0.0,0.0,0.0,0.0,0.0,0.0,0.0,0.0,0.0,0.0,0.0,0.0,0.0,0.0,0.0,0.0,0.0,0.0,0.0,0.0,0.0,0.0,0.0,0.0,0.0,0.0,0.0,0.0,0.0,0.0,0.0,0.0,0.0,0.0,0.0,0.0,0.0,0.0,0.0,0.0,0.0,0.0,0.0,0.0,0.0,0.0,0.0,0.0,0.0,0.0,0.0,0.0,0.0,0.0,0.0,0.0,0.0,0.0,0.0,0.0,0.0,0.0,0.0,0.0,0.0,0.0,0.0,0.0,0.0,0.0,0.0,0.0,0.0,0.0,0.0,0.0,0.0,0.0,0.0,0.0,0.0,0.0,0.0,0.0,0.0,0.0,0.0,0.0,0.0,0.0,0.0,0.0,0.0,0.0,0.0,0.0,0.0,0.0,0.0,0.0,0.0,0.0,0.0,0.0,0.0,0.0,0.0,0.0,0.0,0.0,0.0,0.0,0.0,0.0,0.0,0.0,0.0,0.0,0.0,0.0,0.0,0.0,0.0,0.0,0.0,0.0,0.0,0.0,0.0,0.0,0.0,0.0,0.0,0.0,0.0,0.0,0.0,0.0,0.0,0.0,0.0,0.0,0.0,0.0,0.0,0.0,0.0,0.0,0.0,0.0,0.0,0.0,0.0,0.0,0.0,0.0,0.0,0.0,0.0,0.0,0.0,0.0,0.0,0.0,0.0,0.0,0.0,0.0,0.0,0.0,0.0,0.0,0.0,0.0,0.0,0.0,0.0,0.0,0.0,0.0,0.0,0.0,0.0,0.0,0.0,0.0,0.0,0.0,0.0,0.0,0.0,0.0,0.0,0.0,0.0,0.0,0.0,0.0,0.0,0.0,0.0,0.0,0.0,0.0,0.0,0.0,0.0,0.0,0.0,0.0,0.0,0.0,0.0,0.0,0.0,0.0,0.0,0.0,0.0,0.0,0.0,0.0,0.0,0.0,0.0,0.0,0.0,0.0,0.0,0.0,0.0,0.0,0.0,0.0,0.0,0.0,0.0,0.0,0.0,0.0,0.0,0.0,0.0,0.0,0.0,0.0,0.0,0.0,0.0,0.0,0.0,0.0,0.0,0.0,0.0,0.0,0.0,0.0,0.0,0.0,0.0,0.0,0.0,0.0,0.0,0.0,0.0,0.0,0.0,0.0,0.0,0.0,0.0,0.0,0.0,0.0,0.0,0.0,0.0,0.0,0.0,0.0,0.0,0.0,0.0,0.0,0.0,0.0,0.0,0.0,0.0,0.0,0.0,0.0,0.0,0.0,0.0,0.0,0.0,0.0,0.0,0.0,0.0,0.0,0.0,0.0,0.0,0.0,0.0,0.0,0.0,0.0,0.0,0.0,0.0,0.0,0.0,0.0,0.0,0.0,0.0,0.0,0.0,0.0,0.0,0.0,0.0,0.0,0.0,0.0,0.0,0.0,0.0,0.0,0.0,0.0,0.0,0.0,0.0,0.0,0.0,0.0,0.0,0.0,0.0,0.0,0.0,0.0,0.0,0.0,0.0,0.0,0.0,0.0,0.0,0.0,0.0,0.0,0.0,0.0,0.0,0.0,0.0,0.0,0.0,0.0,0.0,0.0,0.0,0.0,0.0,0.0,0.0,0.0,0.0,0.0,0.0,0.0,0.0,0.0,0.0,0.0,0.0,0.0,0.0,0.0,0.0,0.0,0.0,0.0,0.0,0.0,0.0,0.0,0.0,0.0,0.0,0.0,0.0,0.0,0.0,0.0,0.0,0.0,0.0,0.0,0.0,0.0,0.0,0.0,0.0,0.0,0.0,0.0,0.0,0.0,0.0,0.0,0.0,0.0,0.0,0.0,0.0,0.0,0.0,0.0,0.0,0.0,0.0,0.0,0.0,0.0,0.0,0.0,0.0,0.0,0.0,0.0,0.0,0.0,0.0,0.0,0.0,0.0,0.0,0.0,0.0,0.0,0.0,0.0,0.0,0.0,0.0,0.0,0.0,0.0,0.0,0.0,0.0,0.0,0.0,0.0,0.0,0.0,0.0,0.0,0.0,0.0,0.0,0.0,0.0,0.0,0.0,0.0,0.0,0.0,0.0,0.0,0.0,0.0,0.0,0.0,0.0,0.0,0.0,0.0,0.0,0.0,0.0,0.0,0.0,0.0,0.0,0.0,0.0,0.0,0.0,0.0,0.0,0.0,0.0,0.0,0.0,0.0,0.0,0.0,0.0,0.0,0.0,0.0,0.0,0.0,0.0,0.0,0.0,0.0,0.0,0.0,0.0,0.0,0.0,0.0,0.0,0.0,0.0,0.0,0.0,0.0,0.0,0.0,0.0,0.0,0.0,0.0,0.0,0.0,0.0,0.0,0.0,0.0,0.0,0.0,0.0,0.0,0.0,0.0,0.0,0.0,0.0,0.0,0.0,0.0,0.0,0.0,0.0,0.0,0.0,0.0,0.0,0.0,0.0,0.0,0.0,0.0,0.0,0.0,0.0,0.0,0.0,0.0,0.0,0.0,0.0,0.0,0.0,0.0,0.0,0.0,0.0,0.0,0.0,0.0,0.0,0.0,0.0,0.0,0.0,0.0,0.0,0.0,0.0,0.0,0.0,0.0,0.0,0.0,0.0,0.0,0.0,0.0,0.0,0.0,0.0,0.0,0.0,0.0,0.0,0.0,0.0,0.0,0.0,0.0,0.0,0.0,0.0,0.0,0.0,0.0,0.0,0.0,0.0,0.0,0.0,0.0,0.0,0.0,0.0,0.0,0.0,0.0,0.0,0.0,0.0,0.0,0.0,0.0,0.0,0.0,0.0,0.0,0.0,0.0,0.0,0.0,0.0,0.0,0.0,0.0,0.0,0.0,0.0,0.0,0.0,0.0,0.0,0.0,0.0,0.0,0.0,0.0,0.0,0.0,0.0,0.0,0.0,0.0,0.0,0.0,0.0,0.0,0.0,0.0,0.0,0.0,0.0,0.0,0.0,0.0,0.0,0.0,0.0,0.0,0.0,0.0,0.0,0.0,0.0,0.0,0.0,0.0,0.0,0.0,0.0,0.0,0.0,0.0,0.0,0.0,0.0,0.0,0.0,0.0,0.0,0.0,0.0,0.0,0.0,0.0,0.0,0.0,0.0,0.0,0.0,0.0,0.0,0.0,0.0,0.0,0.0,0.0,0.0,0.0,0.0,0.0,0.0,0.0,0.0,0.0,0.0,0.0,0.0,0.0,0.0,0.0,0.0,0.0,0.0,0.0,0.0,0.0,0.0,0.0,0.0,0.0,0.0,0.0,0.0,0.0,0.0,0.0,0.0,0.0,0.0,0.0,0.0,0.0,0.0,0.0,0.0,0.0,0.0,0.0,0.0,0.0,0.0,0.0,0.0,0.0,0.0,0.0,0.0,0.0,0.0,0.0,0.0,0.0,0.0,0.0,0.0,0.0,0.0,0.0,0.0,0.0,0.0,0.0,0.0,0.0,0.0,0.0,0.0,0.0,0.0,0.0,0.0,0.0,0.0,0.0,0.0,0.0,0.0,0.0,0.0,0.0,0.0,0.0,0.0,0.0,0.0,0.0,0.0,0.0,0.0,0.0,0.0,0.0,0.0,0.0,0.0,0.0,0.0,0.0,0.0,0.0,0.0,0.0,0.0,0.0,0.0,0.0,0.0,0.0,0.0,0.0,0.0,0.0,0.0,0.0,0.0,0.0,0.0,0.0,0.0,0.0,0.0,0.0,0.0,0.0,0.0,0.0,0.0,0.0,0.0,0.0,0.0,0.0,0.0,0.0,0.0,0.0,0.0,0.0,0.0,0.0,0.0,0.0,0.0,0.0,0.0,0.0,0.0,0.0,0.0,0.0,0.0,0.0,0.0,0.0,0.0,0.0,0.0,0.0,0.0,0.0,0.0,0.0,0.0,0.0,0.0,0.0,0.0,0.0,0.0,0.0,0.0,0.0,0.0,0.0,0.0,0.0,0.0,0.0,0.0,0.0,0.0,0.0,0.0,0.0,0.0,0.0,0.0,0.0,0.0,0.0,0.0,0.0,0.0,0.0,0.0,0.0,0.0,0.0,0.0,0.0,0.0,0.0,0.0,0.0,0.0,0.0,0.0,0.0,0.0,0.0,0.0,0.0,0.0,0.0,0.0,0.0,0.0,0.0,0.0,0.0,0.0,0.0,0.0,0.0,0.0,0.0,0.0,0.0,0.0,0.0,0.0,0.0,0.0,0.0,0.0,0.0,0.0,0.0,0.0,0.0,0.0,0.0,0.0,0.0,0.0,0.0,0.0,0.0,0.0,0.0,0.0,0.0,0.0,0.0,0.0,0.0,0.0,0.0,0.0,0.0,0.0,0.0,0.0,0.0,0.0,0.0,0.0,0.0,0.0,0.0,0.0,0.0,0.0,0.0,0.0,0.0,0.0,0.0,0.0,0.0,0.0,0.0,0.0,0.0,0.0,0.0,0.0,0.0,0.0,0.0,0.0,0.0,0.0,0.0,0.0,0.0,0.0,0.0,0.0,0.0,0.0,0.0,0.0,0.0,0.0,0.0,0.0,0.0,0.0,0.0,0.0,0.0,0.0,0.0,0.0,0.0,0.0,0.0,0.0,0.0,0.0,0.0,0.0,0.0,0.0,0.0,0.0,0.0,0.0,0.0,0.0,0.0,0.0,0.0,0.0,0.0,0.0,0.0,0.0,0.0,0.0,0.0,0.0,0.0,0.0,0.0,0.0,0.0,0.0,0.0,0.0,0.0,0.0,0.0,0.0,0.0,0.0,0.0,0.0,0.0,0.0,0.0,0.0,0.0,0.0,0.0,0.0,0.0,0.0,0.0,0.0,0.0,0.0,0.0,0.0,0.0,0.0,0.0,0.0,0.0,0.0,0.0,0.0,0.0,0.0,0.0,0.0,0.0,0.0,0.0,0.0,0.0,0.0,0.0,0.0,0.0,0.0,0.0,0.0,0.0,0.0,0.0,0.0,0.0,0.0,0.0,0.0,0.0,0.0,0.0,0.0,0.0,0.0,0.0,0.0,0.0,0.0,0.0,0.0,0.0,0.0,0.0,0.0,0.0,0.0,0.0,0.0,0.0,0.0,0.0,0.0,0.0,0.0,0.0,0.0,0.0,0.0,0.0,0.0,0.0,0.0,0.0,0.0,0.0,0.0,0.0,0.0,0.0,0.0,0.0,0.0,0.0,0.0,0.0,0.0,0.0,0.0,0.0,0.0,0.0,0.0,0.0,0.0,0.0,0.0,0.0,0.0,0.0,0.0,0.0,0.0,0.0,0.0,0.0,0.0,0.0,0.0,0.0,0.0,0.0,0.0,0.0,0.0,0.0,0.0,0.0,0.0,0.0,0.0,0.0,0.0,0.0,0.0,0.0,0.0,0.0,0.0,0.0,0.0,0.0,0.0,0.0,0.0,0.0,0.0,0.0,0.0,0.0,0.0,0.0,0.0,0.0,0.0,0.0,0.0,0.0,0.0,0.0,0.0,0.0,0.0,0.0,0.0,0.0,0.0,0.0,0.0,0.0,0.0,0.0,0.0,0.0,0.0,0.0,0.0,0.0,0.0,0.0,0.0,0.0,0.0,0.0,0.0,0.0,0.0,0.0,0.0,0.0,0.0,0.0,0.0,0.0,0.0,0.0,0.0,0.0,0.0,0.0,0.0,0.0,0.0,0.0,0.0,0.0,0.0,0.0,0.0,0.0,0.0,0.0,0.0,0.0,0.0,0.0,0.0,0.0,0.0,0.0,0.0,0.0,0.0,0.0,0.0,0.0,0.0,0.0,0.0,0.0,0.0,0.0,0.0,0.0,0.0,0.0,0.0,0.0,0.0,0.0,0.0,0.0,0.0,0.0,0.0,0.0,0.0,0.0,0.0,0.0,0.0,0.0,0.0,0.0,0.0,0.0,0.0,0.0,0.0,0.0,0.0,0.0,0.0,0.0,0.0,0.0,0.0,0.0,0.0,0.0,0.0,0.0,0.0,0.0,0.0,0.0,0.0,0.0,0.0,0.0,0.0,0.0,0.0,0.0,0.0,0.0,0.0,0.0,0.0,0.0,0.0,0.0,0.0,0.0,0.0,0.0,0.0,0.0,0.0,0.0,0.0,0.0,0.0,0.0,0.0,0.0,0.0,0.0,0.0,0.0,0.0,0.0,0.0,0.0,0.0,0.0,0.0,0.0,0.0,0.0,0.0,0.0,0.0,0.0,0.0,0.0,0.0,0.0,0.0,0.0,0.0,0.0,0.0,0.0,0.0,0.0,0.0,0.0,0.0,0.0,0.0,0.0,0.0,0.0,0.0,0.0,0.0,0.0,0.0,0.0,0.0,0.0,0.0,0.0,0.0,0.0,0.0,0.0,0.0,0.0,0.0,0.0,0.0,0.0,0.0,0.0,0.0,0.0,0.0,0.0,0.0,0.0,0.0,0.0,0.0,0.0,0.0,0.0,0.0,0.0,0.0,0.0,0.0,0.0,0.0,0.0,0.0,0.0,0.0,0.0,0.0,0.0,0.0,0.0,0.0,0.0,0.0,0.0,0.0,0.0,0.0,0.0,0.0,0.0,0.0,0.0,0.0,0.0,0.0,0.0,0.0,0.0,0.0,0.0,0.0,0.0,0.0,0.0,0.0,0.0,0.0,0.0,0.0,0.0,0.0,0.0,0.0,0.0,0.0,0.0,0.0,0.0,0.0,0.0,0.0,0.0,0.0,0.0,0.0,0.0,0.0,0.0,0.0,0.0,0.0,0.0,0.0,0.0,0.0,0.0,0.0,0.0,0.0,0.0,0.0,0.0,0.0,0.0,0.0,0.0,0.0,0.0,0.0,0.0,0.0,0.0,0.0,0.0,0.0,0.0,0.0,0.0,0.0,0.0,0.0,0.0,0.0,0.0,0.0,0.0,0.0,0.0,0.0,0.0,0.0,0.0,0.0,0.0,0.0,0.0,0.0,0.0,0.0,0.0,0.0,0.0,0.0,0.0,0.0,0.0,0.0,0.0,0.0,0.0,0.0,0.0,0.0,0.0,0.0,0.0,0.0,0.0,0.0,0.0,0.0,0.0,0.0,0.0,0.0,0.0,0.0,0.0,0.0,0.0,0.0,0.0,0.0,0.0,0.0,0.0,0.0,0.0,0.0,0.0,0.0,0.0,0.0,0.0,0.0,0.0,0.0,0.0,0.0,0.0,0.0,0.0,0.0,0.0,0.0,0.0,0.0,0.0,0.0,0.0,0.0,0.0,0.0,0.0,0.0,0.0,0.0,0.0,0.0,0.0,0.0,0.0,0.0,0.0,0.0,0.0,0.0,0.0,0.0,0.0,0.0,0.0,0.0,0.0,0.0,0.0,0.0,0.0,0.0,0.0,0.0,0.0,0.0,0.0,0.0,0.0,0.0,0.0,0.0,0.0,0.0,0.0,0.0,0.0,0.0,0.0,0.0,0.0,0.0,0.0,0.0,0.0,0.0,0.0,0.0,0.0,0.0,0.0,0.0,0.0,0.0,0.0,0.0,0.0,0.0,0.0,0.0,0.0,0.0,0.0,0.0,0.0,0.0,0.0,0.0,0.0,0.0,0.0,0.0,0.0,0.0,0.0,0.0,0.0,0.0,0.0,0.0,0.0,0.0,0.0,0.0,0.0,0.0,0.0,0.0,0.0,0.0,0.0,0.0,0.0,0.0,0.0,0.0,0.0,0.0,0.0,0.0,0.0,0.0,0.0,0.0,0.0,0.0,0.0,0.0,0.0,0.0,0.0,0.0,0.0,0.0,0.0,0.0,0.0,0.0,0.0,0.0,0.0,0.0,0.0,0.0,0.0,0.0,0.0,0.0,0.0,0.0,0.0,0.0,0.0,0.0,0.0,0.0,0.0,0.0,0.0,0.0,0.0,0.0,0.0,0.0,0.0,0.0,0.0,0.0,0.0,0.0,0.0,0.0,0.0,0.0,0.0,0.0,0.0,0.0,0.0,0.0,0.0,0.0,0.0,0.0,0.0,0.0,0.0,0.0,0.0,0.0,0.0,0.0,0.0,0.0,0.0,0.0,0.0,0.0,0.0,0.0,0.0,0.0,0.0,0.0,0.0,0.0,0.0,0.0,0.0,0.0,0.0,0.0,0.0,0.0,0.0,0.0,0.0,0.0,0.0,0.0,0.0,0.0,0.0,0.0,0.0,0.0,0.0,0.0,0.0,0.0,0.0,0.0,0.0,0.0,0.0,0.0,0.0,0.0,0.0,0.0,0.0,0.0,0.0,0.0,0.0,0.0,0.0,0.0,0.0,0.0,0.0,0.0,0.0,0.0,0.0,0.0,0.0,0.0,0.0,0.0,0.0,0.0,0.0,0.0,0.0,0.0,0.0,0.0,0.0,0.0,0.0,0.0,0.0,0.0,0.0,0.0,0.0,0.0,0.0,0.0,0.0,0.0,0.0,0.0,0.0,0.0,0.0,0.0,0.0,0.0,0.0,0.0,0.0,0.0,0.0,0.0,0.0,0.0,0.0,0.0,0.0,0.0,0.0,0.0,0.0,0.0,0.0,0.0,0.0,0.0,0.0,0.0,0.0,0.0,0.0,0.0,0.0,0.0,0.0,0.0,0.0,0.0,0.0,0.0,0.0,0.0,0.0,0.0,0.0,0.0,0.0,0.0,0.0,0.0,0.0,0.0,0.0,0.0,0.0,0.0,0.0,0.0,0.0,0.0,0.0,0.0,0.0,0.0,0.0,0.0,0.0,0.0,0.0,0.0,0.0,0.0,0.0,0.0,0.0,0.0,0.0,0.0,0.0,0.0,0.0,0.0,0.0,0.0,0.0,0.0,0.0,0.0,0.0,0.0,0.0,0.0,0.0,0.0,0.0,0.0,0.0,0.0,0.0,0.0,0.0,0.0,0.0,0.0,0.0,0.0,0.0,0.0,0.0,0.0,0.0,0.0,0.0,0.0,0.0,0.0,0.0,0.0,0.0,0.0,0.0,0.0,0.0,0.0,0.0,0.0,0.0,0.0,0.0,0.0,0.0,0.0,0.0,0.0,0.0,0.0,0.0,0.0,0.0,0.0,0.0,0.0,0.0,0.0,0.0,0.0,0.0,0.0,0.0,0.0,0.0,0.0,0.0,0.0,0.0,0.0,0.0,0.0,0.0,0.0,0.0,0.0,0.0,0.0,0.0,0.0,0.0,0.0,0.0,0.0,0.0,0.0,0.0,0.0,0.0,0.0,0.0,0.0,0.0,0.0,0.0,0.0,0.0,0.0,0.0,0.0,0.0,0.0,0.0,0.0,0.0,0.0,0.0,0.0,0.0,0.0,0.0,0.0,0.0,0.0,0.0,0.0,0.0,0.0,0.0,0.0,0.0,0.0,0.0,0.0,0.0,0.0,0.0,0.0,0.0,0.0,0.0,0.0,0.0,0.0,0.0,0.0,0.0,0.0,0.0,0.0,0.0,0.0,0.0,0.0,0.0,0.0,0.0,0.0,0.0,0.0,0.0,0.0,0.0,0.0,0.0,0.0,0.0,0.0,0.0,0.0,0.0,0.0,0.0,0.0,0.0,0.0,0.0,0.0,0.0,0.0,0.0,0.0,0.0,0.0,0.0,0.0,0.0,0.0,0.0,0.0,0.0,0.0,0.0,0.0,0.0,0.0,0.0,0.0,0.0,0.0,0.0,0.0,0.0,0.0,0.0,0.0,0.0,-0.0,-0.3271,-0.2851,0.0,0.0,0.0,0.0,0.0,0.0,0.0,0.0,0.0,0.0,0.0,0.0,0.0,0.0,0.0,0.0,0.0,0.0,0.0,0.0,0.0,0.0,0.0,0.0,0.0,0.0,0.0,0.0,0.0,0.0,0.0,0.0,0.0,0.0,0.0,0.0,0.0,0.0,0.0,0.0,0.0,0.0,0.0,0.0,0.0,0.0,0.0,0.0,0.0,0.0,0.0,0.0,0.0,0.0,0.0,0.0,0.0,0.0,0.0,0.0,0.0,0.0,0.0,0.0,0.0,0.0,0.0,0.0,0.0,0.0,0.0,0.0,0.0,0.0,0.0,0.0,0.0,0.0,0.0,0.0,0.0,0.0,0.0,0.0,0.0,0.0,0.0,0.0,0.0,0.0,0.0,0.0,0.0,0.0,0.0,0.0,0.0,0.0,0.0,0.0,0.0,0.0,0.0,0.0,0.0,0.0,0.0,0.0,0.0,-0.0399,-1.5837,-1.4584,0.0,0.0,0.0,0.0,0.0,0.0,0.0,0.0,0.0,0.0,0.0,0.0,0.0,0.0,0.0,0.0,0.0,0.0,0.0,0.0,0.0,0.0,0.0,0.0,0.0,0.0,0.0,0.0,0.0,0.0,0.0,0.0,0.0,0.0,0.0,0.0,0.0,0.0,0.0,0.0,0.0,0.0,0.0,0.0,0.0,0.0,0.0,0.0,0.0,0.0,0.0,0.0,0.0,0.0,0.0,0.0,0.0,0.0,0.0,0.0,0.0,0.0,0.0,0.0,0.0,0.0,0.0,0.0,0.0,0.0,0.0,0.0,0.0,0.0,0.0,0.0,0.0,0.0,0.0,0.0,0.0,0.0,0.0,0.0,0.0,0.0,0.0,0.0,0.0,0.0,0.0,0.0,0.0,0.0,0.0,0.0,0.0,0.0,0.0,0.0,0.0,0.0,0.0,0.0,0.0,-0.4902,-1.4994,-1.4518,-1.4046,-1.4381,-2.196,-2.1518,0.0,0.0,0.0,0.0,0.0,0.0,0.0,0.0,0.0,0.0,0.0,0.0,0.0,0.0,0.0,0.0,0.0,0.0,0.0,0.0,0.0,0.0,0.0,0.0,0.0,0.0,0.0,0.0,0.0,0.0,0.0,0.0,0.0,0.0,0.0,0.0,0.0,0.0,0.0,0.0,0.0,0.0,0.0,0.0,0.0,0.0,0.0,0.0,0.0,0.0,0.0,0.0,0.0,0.0,0.0,0.0,0.0,0.0,0.0,0.0,0.0,0.0,0.0,0.0,0.0,0.0,0.0,0.0,0.0,0.0,0.0,0.0,0.0,0.0,0.0,0.0,0.0,0.0,0.0,0.0,0.0,0.0,0.0,0.0,0.0,0.0,0.0,0.0,0.0,0.0,0.0,0.0,0.0,0.0,0.0,0.0,0.0,0.0,0.0,0.0,0.0,0.0,0.0,0.0,-0.4065,-1.2956,-2.6174,-2.5353,-2.4892,-2.5218,-2.5239,-2.5239,0.0,0.0,0.0,0.0,0.0,0.0,0.0,0.0,0.0,0.0,0.0,0.0,0.0,0.0,0.0,0.0,0.0,0.0,0.0,0.0,0.0,0.0,0.0,0.0,0.0,0.0,0.0,0.0,0.0,0.0,0.0,0.0,0.0,0.0,0.0,0.0,0.0,0.0,0.0,0.0,0.0,0.0,0.0,0.0,0.0,0.0,0.0,0.0,0.0,0.0,0.0,0.0,0.0,0.0,0.0,0.0,0.0,0.0,0.0,0.0,0.0,0.0,0.0,0.0,0.0,0.0,0.0,0.0,0.0,0.0,0.0,0.0,0.0,0.0,0.0,0.0,0.0,0.0,0.0,0.0,0.0,0.0,0.0,0.0,0.0,0.0,0.0,0.0,0.0,0.0,0.0,0.0,0.0,0.0,0.0,0.0,0.0,0.0,0.0,0.0,0.0,0.0,0.0,0.0,-1.5725,-2.4133,-2.5083,-2.5041,-2.4916,-2.5087,-2.5087,-2.5087,0.0,0.0,0.0,0.0,0.0,0.0,0.0,0.0,0.0,0.0,0.0,0.0,0.0,0.0,0.0,0.0,0.0,0.0,0.0,0.0,0.0,0.0,0.0,0.0,0.0,0.0,0.0,0.0,0.0,0.0,0.0,0.0,0.0,0.0,0.0,0.0,0.0,0.0,0.0,0.0,0.0,0.0,0.0,0.0,0.0,0.0,0.0,0.0,0.0,0.0,0.0,0.0,0.0,0.0,0.0,0.0,0.0,0.0,0.0,0.0,0.0,0.0,0.0,0.0,0.0,0.0,0.0,0.0,0.0,0.0,0.0,0.0,0.0,0.0,0.0,0.0,0.0,0.0,0.0,0.0,0.0,0.0,0.0,0.0,0.0,0.0,0.0,0.0,0.0,0.0,0.0,0.0,0.0,0.0,0.0,0.0,0.0,0.0,0.0,0.0,0.0,0.0,0.0,0.0,-1.6353,-2.5072,-2.5193,-2.5183,-2.513,-2.5056,-2.5056,-2.5056,0.0,0.0,0.0,0.0,0.0,0.0,0.0,0.0,0.0,0.0,0.0,0.0,0.0,0.0,0.0,0.0,0.0,0.0,0.0,0.0,0.0,0.0,0.0,0.0,0.0,0.0,0.0,0.0,0.0,0.0,0.0,0.0,0.0,0.0,0.0,0.0,0.0,0.0,0.0,0.0,0.0,0.0,0.0,0.0,0.0,0.0,0.0,0.0,0.0,0.0,0.0,0.0,0.0,0.0,0.0,0.0,0.0,0.0,0.0,0.0,0.0,0.0,0.0,0.0,0.0,0.0,0.0,0.0,0.0,0.0,0.0,0.0,0.0,0.0,0.0,0.0,0.0,0.0,0.0,0.0,0.0,0.0,0.0,0.0,0.0,0.0,0.0,0.0,0.0,0.0,0.0,0.0,0.0,0.0,0.0,0.0,0.0,0.0,0.0,0.0,0.0,0.0,-0.2782,-0.8287,-1.9363,-2.5246,-2.5056,-2.5056,-2.5056,-2.5056,-2.5056,-2.5056,0.0,0.0,0.0,0.0,0.0,0.0,0.0,0.0,0.0,0.0,0.0,0.0,0.0,0.0,0.0,0.0,0.0,0.0,0.0,0.0,0.0,0.0,0.0,0.0,0.0,0.0,0.0,0.0,0.0,0.0,0.0,0.0,0.0,0.0,0.0,0.0,0.0,0.0,0.0,0.0,0.0,0.0,0.0,0.0,0.0,0.0,0.0,0.0,0.0,0.0,0.0,0.0,0.0,0.0,0.0,0.0,0.0,0.0,0.0,0.0,0.0,0.0,0.0,0.0,0.0,0.0,0.0,0.0,0.0,0.0,0.0,0.0,0.0,0.0,0.0,0.0,0.0,0.0,0.0,0.0,0.0,0.0,0.0,0.0,0.0,0.0,0.0,0.0,0.0,0.0,0.0,0.0,0.0,0.0,0.0,0.0,0.0,0.0,0.0,0.0,0.0,0.0,-0.7833,-2.476,-2.5119,-2.5087,-2.5056,-2.5056,-2.5056,-2.5056,-2.5056,-2.5056,0.0,0.0,0.0,0.0,0.0,0.0,0.0,0.0,0.0,0.0,0.0,0.0,0.0,0.0,0.0,0.0,0.0,0.0,0.0,0.0,0.0,0.0,0.0,0.0,0.0,0.0,0.0,0.0,0.0,0.0,0.0,0.0,0.0,0.0,0.0,0.0,0.0,0.0,0.0,0.0,0.0,0.0,0.0,0.0,0.0,0.0,0.0,0.0,0.0,0.0,0.0,0.0,0.0,0.0,0.0,0.0,0.0,0.0,0.0,0.0,0.0,0.0,0.0,0.0,0.0,0.0,0.0,0.0,0.0,0.0,0.0,0.0,0.0,0.0,0.0,0.0,0.0,0.0,0.0,0.0,0.0,0.0,0.0,0.0,0.0,0.0,0.0,0.0,0.0,0.0,0.0,0.0,0.0,0.0,0.0,0.0,0.0,0.0,0.0,0.0,0.0,0.0,-0.7823,-2.476,-2.5098,-2.5066,-2.5056,-2.5056,-2.5056,-2.5056,-2.5056,-2.5056,0.0,0.0,0.0,0.0,0.0,0.0,0.0,0.0,0.0,0.0,0.0,0.0,0.0,0.0,0.0,0.0,0.0,0.0,0.0,0.0,0.0,0.0,0.0,0.0,0.0,0.0,0.0,0.0,0.0,0.0,0.0,0.0,0.0,0.0,0.0,0.0,0.0,0.0,0.0,0.0,0.0,0.0,0.0,0.0,0.0,0.0,0.0,0.0,0.0,0.0,0.0,0.0,0.0,0.0,0.0,0.0,0.0,0.0,0.0,0.0,0.0,0.0,0.0,0.0,0.0,0.0,0.0,0.0,0.0,0.0,0.0,0.0,0.0,0.0,0.0,0.0,0.0,0.0,0.0,0.0,0.0,0.0,0.0,0.0,0.0,0.0,0.0,0.0,0.0,0.0,0.0,0.0,0.0,0.0,0.0,0.0,0.0,0.0,0.0,0.0,0.0,0.0,-0.7773,-2.4625,-2.495,-2.4908,-2.4908,-2.5003,-2.5056,-2.5056,-2.5056,-2.495,0.0,0.0,0.0,0.0,0.0,0.0,0.0,0.0,0.0,0.0,0.0,0.0,0.0,0.0,0.0,0.0,0.0,0.0,0.0,0.0,0.0,0.0,0.0,0.0,0.0,0.0,0.0,0.0,0.0,0.0,0.0,0.0,0.0,0.0,0.0,0.0,0.0,0.0,0.0,0.0,0.0,0.0,0.0,0.0,0.0,0.0,0.0,0.0,0.0,0.0,0.0,0.0,0.0,0.0,0.0,0.0,0.0,0.0,0.0,0.0,0.0,0.0,0.0,0.0,0.0,0.0,0.0,0.0,0.0,0.0,0.0,0.0,0.0,0.0,0.0,0.0,0.0,0.0,0.0,0.0,0.0,0.0,0.0,0.0,0.0,0.0,0.0,0.0,0.0,0.0,0.0,0.0,0.0,0.0,0.0,0.0,0.0,0.0,0.0,0.0,0.0,0.0,-0.7707,-2.4438,-2.5112,-2.5069,-2.509,-2.4887,-2.4982,-2.4982,-2.4982,-2.5144,0.0,0.0,0.0,0.0,0.0,0.0,0.0,0.0,0.0,0.0,0.0,0.0,0.0,0.0,0.0,0.0,0.0,0.0,0.0,0.0,0.0,0.0,0.0,0.0,0.0,0.0,0.0,0.0,0.0,0.0,0.0,0.0,0.0,0.0,0.0,0.0,0.0,0.0,0.0,0.0,0.0,0.0,0.0,0.0,0.0,0.0,0.0,0.0,0.0,0.0,0.0,0.0,0.0,0.0,0.0,0.0,0.0,0.0,0.0,0.0,0.0,0.0,0.0,0.0,0.0,0.0,0.0,0.0,0.0,0.0,0.0,0.0,0.0,0.0,0.0,0.0,0.0,0.0,0.0,0.0,0.0,0.0,0.0,0.0,0.0,0.0,0.0,0.0,0.0,0.0,0.0,0.0,0.0,0.0,0.0,0.0,0.0,0.0,0.0,0.0,0.0,0.0,-0.7664,-2.3657,-2.3827,-2.4167,-2.509,-2.4962,-2.4897,-2.4897,-2.4897,-2.4833,0.0,0.0,0.0,0.0,0.0,0.0,0.0,0.0,0.0,0.0,0.0,0.0,0.0,0.0,0.0,0.0,0.0,0.0,0.0,0.0,0.0,0.0,0.0,0.0,0.0,0.0,0.0,0.0,0.0,0.0,0.0,0.0,0.0,0.0,0.0,0.0,0.0,0.0,0.0,0.0,0.0,0.0,0.0,0.0,0.0,0.0,0.0,0.0,0.0,0.0,0.0,0.0,0.0,0.0,0.0,0.0,0.0,0.0,0.0,0.0,0.0,0.0,0.0,0.0,0.0,0.0,0.0,0.0,0.0,0.0,0.0,0.0,0.0,0.0,0.0,0.0,0.0,0.0,0.0,0.0,0.0,0.0,0.0,0.0,0.0,0.0,0.0,0.0,0.0,0.0,0.0,0.0,0.0,0.0,0.0,0.0,0.0,0.0,0.0,0.0,0.0,0.0,-0.3803,-1.1797,-2.0184,-2.4379,-2.4358,-2.4369,-2.4369,-2.4369,-2.45,-2.402,0.0,0.0,0.0,0.0,0.0,0.0,0.0,0.0,0.0,0.0,0.0,0.0,0.0,0.0,0.0,0.0,0.0,0.0,0.0,0.0,0.0,0.0,0.0,0.0,0.0,0.0,0.0,0.0,0.0,0.0,0.0,0.0,0.0,0.0,0.0,0.0,0.0,0.0,0.0,0.0,0.0,0.0,0.0,0.0,0.0,0.0,0.0,0.0,0.0,0.0,0.0,0.0,0.0,0.0,0.0,0.0,0.0,0.0,0.0,0.0,0.0,0.0,0.0,0.0,0.0,0.0,0.0,0.0,0.0,0.0,0.0,0.0,0.0,0.0,0.0,0.0,0.0,0.0,0.0,0.0,0.0,0.0,0.0,0.0,0.0,0.0,0.0,0.0,0.0,0.0,0.0,0.0,0.0,0.0,0.0,0.0,0.0,0.0,0.0,0.0,0.0,0.0,-0.1507,-0.4868,-1.8096,-2.4543,-2.3637,-2.3782,-2.3845,-2.3834,-2.365,-2.3803,0.0,0.0,0.0,0.0,0.0,0.0,0.0,0.0,0.0,0.0,0.0,0.0,0.0,0.0,0.0,0.0,0.0,0.0,0.0,0.0,0.0,0.0,0.0,0.0,0.0,0.0,0.0,0.0,0.0,0.0,0.0,0.0,0.0,0.0,0.0,0.0,0.0,0.0,0.0,0.0,0.0,0.0,0.0,0.0,0.0,0.0,0.0,0.0,0.0,0.0,0.0,0.0,0.0,0.0,0.0,0.0,0.0,0.0,0.0,0.0,0.0,0.0,0.0,0.0,0.0,0.0,0.0,0.0,0.0,0.0,0.0,0.0,0.0,0.0,0.0,0.0,0.0,0.0,0.0,0.0,0.0,0.0,0.0,0.0,0.0,0.0,0.0,0.0,0.0,0.0,0.0,0.0,0.0,0.0,0.0,0.0,0.0,0.0,0.0,0.0,0.0,0.0,-0.7058,-2.179,-2.3131,-2.3862,-2.3637,-2.383,-2.3735,-2.3714,-2.3556,-2.3723,0.0,0.0,0.0,0.0,0.0,0.0,0.0,0.0,0.0,0.0,0.0,0.0,0.0,0.0,0.0,0.0,0.0,0.0,0.0,0.0,0.0,0.0,0.0,0.0,0.0,0.0,0.0,0.0,0.0,0.0,0.0,0.0,0.0,0.0,0.0,0.0,0.0,0.0,0.0,0.0,0.0,0.0,0.0,0.0,0.0,0.0,0.0,0.0,0.0,0.0,0.0,0.0,0.0,0.0,0.0,0.0,0.0,0.0,0.0,0.0,0.0,0.0,0.0,0.0,0.0,0.0,0.0,0.0,0.0,0.0,0.0,0.0,0.0,0.0,0.0,0.0,0.0,0.0,0.0,0.0,0.0,0.0,0.0,0.0,0.0,0.0,0.0,0.0,0.0,0.0,0.0,0.0,0.0,0.0,0.0,0.0,0.0,0.0,0.0,-0.4174,-1.3434,-1.3721,0.0,0.0,0.0,0.0,0.0,0.0,0.0,0.0,-2.259,-2.2515,0.0,0.0,0.0,0.0,0.0,0.0,0.0,0.0,0.0,0.0,0.0,0.0,0.0,0.0,0.0,0.0,0.0,0.0,0.0,0.0,0.0,0.0,0.0,0.0,0.0,0.0,0.0,0.0,0.0,0.0,0.0,0.0,0.0,0.0,0.0,0.0,0.0,0.0,0.0,0.0,0.0,0.0,0.0,0.0,0.0,0.0,0.0,0.0,0.0,0.0,0.0,0.0,0.0,0.0,0.0,0.0,0.0,0.0,0.0,0.0,0.0,0.0,0.0,0.0,0.0,0.0,0.0,0.0,0.0,0.0,0.0,0.0,0.0,0.0,0.0,0.0,0.0,0.0,0.0,0.0,0.0,0.0,0.0,0.0,0.0,0.0,0.0,0.0,0.0,0.0,0.0,0.0,0.0,0.0,0.0,0.0,0.0,0.0,-0.4142,-1.1643,-2.3151,-2.3798,-2.3735,-2.3703,-2.3803,-2.3524,0.0,0.0,0.0,0.0,0.0,0.0,0.0,0.0,0.0,0.0,0.0,0.0,0.0,0.0,0.0,0.0,0.0,0.0,0.0,0.0,0.0,0.0,0.0,0.0,0.0,0.0,0.0,0.0,0.0,0.0,0.0,0.0,0.0,0.0,0.0,0.0,0.0,0.0,0.0,0.0,0.0,0.0,0.0,0.0,0.0,0.0,0.0,0.0,0.0,0.0,0.0,0.0,0.0,0.0,0.0,0.0,0.0,0.0,0.0,0.0,0.0,0.0,0.0,0.0,0.0,0.0,0.0,0.0,0.0,0.0,0.0,0.0,0.0,0.0,0.0,0.0,0.0,0.0,0.0,0.0,0.0,0.0,0.0,0.0,0.0,0.0,0.0,0.0,0.0,0.0,0.0,0.0,0.0,0.0,0.0,0.0,0.0,0.0,0.0,0.0,0.0,0.0,0.0,0.0,-1.4424,-2.3223,-2.3689,-2.384,-2.3693,-2.3661,-2.3792,-2.2721,-2.0839,0.0,0.0,0.0,0.0,0.0,0.0,0.0,0.0,0.0,0.0,0.0,0.0,0.0,0.0,0.0,0.0,0.0,0.0,0.0,0.0,0.0,0.0,0.0,0.0,0.0,0.0,0.0,0.0,0.0,0.0,0.0,0.0,0.0,0.0,0.0,0.0,0.0,0.0,0.0,0.0,0.0,0.0,0.0,0.0,0.0,0.0,0.0,0.0,0.0,0.0,0.0,0.0,0.0,0.0,0.0,0.0,0.0,0.0,0.0,0.0,0.0,0.0,0.0,0.0,0.0,0.0,0.0,0.0,0.0,0.0,0.0,0.0,0.0,0.0,0.0,0.0,0.0,0.0,0.0,0.0,0.0,0.0,0.0,0.0,0.0,0.0,0.0,0.0,0.0,0.0,0.0,0.0,0.0,0.0,0.0,0.0,0.0,0.0,0.0,0.0,0.0,0.0,0.0,-1.4936,-2.3595,-2.384,-2.3735,-2.3671,-2.3661,-2.3587,-2.3373,-2.263,0.0,0.0,0.0,0.0,0.0,0.0,0.0,0.0,0.0,0.0,0.0,0.0,0.0,0.0,0.0,0.0,0.0,0.0,0.0,0.0,0.0,0.0,0.0,0.0,0.0,0.0,0.0,0.0,0.0,0.0,0.0,0.0,0.0,0.0,0.0,0.0,0.0,0.0,0.0,0.0,0.0,0.0,0.0,0.0,0.0,0.0,0.0,0.0,0.0,0.0,0.0,0.0,0.0,0.0,0.0,0.0,0.0,0.0,0.0,0.0,0.0,0.0,0.0,0.0,0.0,0.0,0.0,0.0,0.0,0.0,0.0,0.0,0.0,0.0,0.0,0.0,0.0,0.0,0.0,0.0,0.0,0.0,0.0,0.0,0.0,0.0,0.0,0.0,0.0,0.0,0.0,0.0,0.0,0.0,0.0,0.0,0.0,0.0,0.0,0.0,0.0,0.0,0.0,-1.491,-2.3872,-2.3819,-2.3714,-2.3545,-2.3663,-2.3577,-2.3634,0.0,0.0,0.0,0.0,0.0,0.0,0.0,0.0,0.0,0.0,0.0,0.0,0.0,0.0,0.0,0.0,0.0,0.0,0.0,0.0,0.0,0.0,0.0,0.0,0.0,0.0,0.0,0.0,0.0,0.0,0.0,0.0,0.0,0.0,0.0,0.0,0.0,0.0,0.0,0.0,0.0,0.0,0.0,0.0,0.0,0.0,0.0,0.0,0.0,0.0,0.0,0.0,0.0,0.0,0.0,0.0,0.0,0.0,0.0,0.0,0.0,0.0,0.0,0.0,0.0,0.0,0.0,0.0,0.0,0.0,0.0,0.0,0.0,0.0,0.0,0.0,0.0,0.0,0.0,0.0,0.0,0.0,0.0,0.0,0.0,0.0,0.0,0.0,0.0,0.0,0.0,0.0,0.0,0.0,0.0,0.0,0.0,0.0,0.0,0.0,0.0,0.0,0.0,0.0,-1.5095,-2.3699,-2.3626,-2.3767,-2.3685,-2.3689,-2.3424,0.0,0.0,0.0,0.0,0.0,0.0,0.0,0.0,0.0,0.0,0.0,0.0,0.0,0.0,0.0,0.0,0.0,0.0,0.0,0.0,0.0,0.0,0.0,0.0,0.0,0.0,0.0,0.0,0.0,0.0,0.0,0.0,0.0,0.0,0.0,0.0,0.0,0.0,0.0,0.0,0.0,0.0,0.0,0.0,0.0,0.0,0.0,0.0,0.0,0.0,0.0,0.0,0.0,0.0,0.0,0.0,0.0,0.0,0.0,0.0,0.0,0.0,0.0,0.0,0.0,0.0,0.0,0.0,0.0,0.0,0.0,0.0,0.0,0.0,0.0,0.0,0.0,0.0,0.0,0.0,0.0,0.0,0.0,0.0,0.0,0.0,0.0,0.0,0.0,0.0,0.0,0.0,0.0,0.0,0.0,0.0,0.0,0.0,0.0,0.0,0.0,0.0,0.0,0.0,0.0,-1.5417,-2.4393,-2.3756,-2.3889,-2.3796,-2.3782,0.0,0.0,0.0,0.0,0.0,0.0,0.0,0.0,0.0,0.0,0.0,0.0,0.0,0.0,0.0,0.0,0.0,0.0,0.0,0.0,0.0,0.0,0.0,0.0,0.0,0.0,0.0,0.0,0.0,0.0,0.0,0.0,0.0,0.0,0.0,0.0,0.0,0.0,0.0,0.0,0.0,0.0,0.0,0.0,0.0,0.0,0.0,0.0,0.0,0.0,0.0,0.0,0.0,0.0,0.0,0.0,0.0,0.0,0.0,0.0,0.0,0.0,0.0,0.0,0.0,0.0,0.0,0.0,0.0,0.0,0.0,0.0,0.0,0.0,0.0,0.0,0.0,0.0,0.0,0.0,-0.1668,-0.8147,-0.988,-0.7842,-0.1371,0.0,0.0,0.0,0.0,0.0,0.0,0.0,0.0,0.0,0.0,0.0,0.0,0.0,0.0,0.0,0.0,0.0,0.0,0.0,0.0,0.0,-1.5465,-2.4318,-2.4264,-2.3818,-2.3142,0.0,0.0,0.0,0.0,0.0,0.0,0.0,0.0,0.0,0.0,0.0,0.0,0.0,0.0,0.0,0.0,0.0,0.0,0.0,0.0,0.0,0.0,0.0,0.0,0.0,0.0,0.0,0.0,0.0,0.0,0.0,0.0,0.0,0.0,0.0,0.0,0.0,0.0,0.0,0.0,0.0,0.0,0.0,0.0,0.0,0.0,0.0,0.0,0.0,0.0,0.0,0.0,0.0,0.0,0.0,0.0,0.0,0.0,0.0,0.0,0.0,0.0,0.0,0.0,0.0,0.0,0.0,0.0,0.0,0.0,0.0,0.0,0.0,0.0,0.0,0.0,0.0,0.0,0.0,0.0,0.0,-0.5917,-1.9337,-2.2314,-1.8706,0.0,-0.2237,-0.2134,-0.215,-0.0932,0.0,0.0,0.0,0.0,0.0,0.0,0.0,0.0,0.0,0.0,0.0,0.0,0.0,0.0,0.0,0.0,0.0,-1.5075,-2.4071,-2.4972,-2.3906,0.0,0.0,0.0,0.0,0.0,0.0,0.0,0.0,0.0,0.0,0.0,0.0,0.0,0.0,0.0,0.0,0.0,0.0,0.0,0.0,0.0,0.0,0.0,0.0,0.0,0.0,0.0,0.0,0.0,0.0,0.0,0.0,0.0,0.0,0.0,0.0,0.0,0.0,0.0,0.0,0.0,0.0,0.0,0.0,0.0,0.0,0.0,0.0,0.0,0.0,0.0,0.0,0.0,0.0,0.0,0.0,0.0,0.0,0.0,0.0,0.0,0.0,0.0,0.0,0.0,0.0,0.0,0.0,0.0,0.0,0.0,0.0,0.0,0.0,0.0,0.0,0.0,0.0,0.0,0.0,0.0,0.0,0.0,0.0,-2.2212,-2.1061,0.0,0.0,0.0,0.0,0.0,0.0,0.0,0.0,0.0,0.0,0.0,0.0,0.0,0.0,0.0,0.0,0.0,0.0,0.0,0.0,0.0,0.0,-1.4895,-2.3811,0.0,0.0,0.0,0.0,0.0,0.0,0.0,0.0,0.0,0.0,0.0,0.0,0.0,0.0,0.0,0.0,0.0,0.0,0.0,0.0,0.0,0.0,0.0,0.0,0.0,0.0,0.0,0.0,0.0,0.0,0.0,0.0,0.0,0.0,0.0,0.0,0.0,0.0,0.0,0.0,0.0,0.0,0.0,0.0,0.0,0.0,0.0,0.0,0.0,0.0,0.0,0.0,0.0,0.0,0.0,0.0,0.0,0.0,0.0,0.0,0.0,0.0,0.0,0.0,0.0,0.0,0.0,0.0,0.0,0.0,0.0,0.0,0.0,0.0,0.0,0.0,0.0,0.0,0.0,0.0,0.0,0.0,0.0,0.0,0.0,0.0,0.0,0.0,0.0,0.0,0.0,0.0,0.0,0.0,0.0,0.0,0.0,0.0,0.0,0.0,0.0,0.0,0.0,0.0,0.0,0.0,0.0,0.0,0.0,0.0,-1.4509,0.0,0.0,0.0,0.0,0.0,0.0,0.0,0.0,0.0,0.0,0.0,0.0,0.0,0.0,0.0,0.0,0.0,0.0,0.0,0.0,0.0,0.0,0.0,0.0,0.0,0.0,0.0,0.0,0.0,0.0,0.0,0.0,0.0,0.0,0.0,0.0,0.0,0.0,0.0,0.0,0.0,0.0,0.0,0.0,0.0,0.0,0.0,0.0,0.0,0.0,0.0,0.0,0.0,0.0,0.0,0.0,0.0,0.0,0.0,0.0,0.0,0.0,0.0,0.0,0.0,0.0,0.0,0.0,0.0,0.0,0.0,0.0,0.0,0.0,0.0,0.0,0.0,0.0,0.0,0.0,0.0,0.0,0.0,0.0,0.0,0.0,0.0,0.0,0.0,0.0,0.0,0.0,0.0,0.0,0.0,0.0,0.0,0.0,0.0,0.0,0.0,0.0,0.0,0.0,0.0,0.0,0.0,0.0,0.0,-0.146,-0.4619,-1.5458,0.0,0.0,0.0,0.0,0.0,0.0,0.0,0.0,0.0,0.0,0.0,0.0,0.0,0.0,0.0,0.0,0.0,0.0,0.0,0.0,0.0,0.0,0.0,0.0,0.0,0.0,0.0,0.0,0.0,0.0,0.0,0.0,0.0,0.0,0.0,0.0,0.0,0.0,0.0,0.0,0.0,0.0,0.0,0.0,0.0,0.0,0.0,0.0,0.0,0.0,0.0,0.0,0.0,0.0,0.0,0.0,0.0,0.0,0.0,0.0,0.0,0.0,0.0,0.0,0.0,0.0,0.0,0.0,0.0,0.0,0.0,0.0,0.0,0.0,0.0,0.0,0.0,0.0,0.0,0.0,0.0,0.0,0.0,0.0,0.0,0.0,0.0,0.0,0.0,0.0,0.0,0.0,0.0,0.0,0.0,0.0,0.0,0.0,0.0,0.0,0.0,0.0,0.0,0.0,0.0,0.0,0.0,0.0,0.0,-0.5742,-1.934,0.0,0.0,0.0,0.0,0.0,0.0,0.0,0.0,0.0,0.0,0.0,0.0,0.0,0.0,0.0,0.0,0.0,0.0,0.0,0.0,0.0,0.0,0.0,0.0,0.0,0.0,0.0,0.0,0.0,0.0,0.0,0.0,0.0,0.0,0.0,0.0,0.0,0.0,0.0,0.0,0.0,0.0,0.0,0.0,0.0,0.0,0.0,0.0,0.0,0.0,0.0,0.0,0.0,0.0,0.0,0.0,0.0,0.0,0.0,0.0,0.0,0.0,0.0,0.0,0.0,0.0,0.0,0.0,0.0,0.0,0.0,0.0,0.0,0.0,0.0,0.0,0.0,0.0,0.0,0.0,0.0,0.0,0.0,0.0,0.0,0.0,0.0,0.0,0.0,0.0,0.0,0.0,0.0,0.0,0.0,0.0,0.0,0.0,0.0,0.0,0.0,0.0,-0.1029,0.0,0.0,0.0,0.0,0.0,0.0,-0.8675,-1.6508,-2.2085,0.0,0.0,0.0,0.0,0.0,0.0,0.0,0.0,0.0,0.0,0.0,0.0,0.0,0.0,0.0,0.0,0.0,0.0,0.0,0.0,0.0,0.0,0.0,0.0,0.0,0.0,0.0,0.0,0.0,0.0,0.0,0.0,0.0,0.0,0.0,0.0,0.0,0.0,0.0,0.0,0.0,0.0,0.0,0.0,0.0,0.0,0.0,0.0,0.0,0.0,0.0,0.0,0.0,0.0,0.0,0.0,0.0,0.0,0.0,0.0,0.0,0.0,0.0,0.0,0.0,0.0,0.0,0.0,0.0,0.0,0.0,0.0,0.0,0.0,0.0,0.0,0.0,0.0,0.0,0.0,0.0,0.0,0.0,0.0,0.0,0.0,0.0,0.0,0.0,0.0,0.0,0.0,0.0,0.0,0.0,0.0,0.0,0.0,0.0,0.0,0.0,0.0,-0.1681,0.0,0.0,0.0,0.0,0.0,0.0,-1.4295,-2.287,-2.2535,0.0,0.0,0.0,0.0,0.0,0.0,0.0,0.0,0.0,0.0,0.0,0.0,0.0,0.0,0.0,0.0,0.0,0.0,0.0,0.0,0.0,0.0,0.0,0.0,0.0,0.0,0.0,0.0,0.0,0.0,0.0,0.0,0.0,0.0,0.0,0.0,0.0,0.0,0.0,0.0,0.0,0.0,0.0,0.0,0.0,0.0,0.0,0.0,0.0,0.0,0.0,0.0,0.0,0.0,0.0,0.0,0.0,0.0,0.0,0.0,0.0,0.0,0.0,0.0,0.0,0.0,0.0,0.0,0.0,0.0,0.0,0.0,0.0,0.0,0.0,0.0,0.0,0.0,0.0,0.0,0.0,0.0,0.0,0.0,0.0,0.0,0.0,0.0,0.0,0.0,0.0,0.0,0.0,0.0,0.0,0.0,0.0,0.0,0.0,0.0,0.0,0.0,-0.1624,0.0,0.0,0.0,0.0,0.0,0.0,-1.3848,-2.2408,0.0,0.0,0.0,0.0,0.0,0.0,0.0,0.0,0.0,0.0,0.0,0.0,0.0,0.0,0.0,0.0,0.0,0.0,0.0,0.0,0.0,0.0,0.0,0.0,0.0,0.0,0.0,0.0,0.0,0.0,0.0,0.0,0.0,0.0,0.0,0.0,0.0,0.0,0.0,0.0,0.0,0.0,0.0,0.0,0.0,0.0,0.0,0.0,0.0,0.0,0.0,0.0,0.0,0.0,0.0,0.0,0.0,0.0,0.0,0.0,0.0,0.0,0.0,0.0,0.0,0.0,0.0,0.0,0.0,0.0,0.0,0.0,0.0,0.0,0.0,0.0,0.0,0.0,0.0,0.0,0.0,0.0,0.0,0.0,0.0,0.0,0.0,0.0,0.0,0.0,0.0,0.0,0.0,0.0,0.0,0.0,0.0,0.0,0.0,0.0,0.0,0.0,0.0,-1.5588,-0.6419,0.0,0.0,-0.9285,-1.5307,-1.5257,-1.959,-2.2336,-2.2316,0.0,0.0,0.0,0.0,0.0,0.0,0.0,0.0,0.0,0.0,0.0,0.0,0.0,0.0,0.0,0.0,0.0,0.0,0.0,0.0,0.0,0.0,0.0,0.0,0.0,0.0,0.0,0.0,0.0,0.0,0.0,0.0,0.0,0.0,0.0,0.0,0.0,0.0,0.0,0.0,0.0,0.0,0.0,0.0,0.0,0.0,0.0,0.0,0.0,0.0,0.0,0.0,0.0,0.0,0.0,0.0,0.0,0.0,0.0,0.0,0.0,0.0,0.0,0.0,0.0,0.0,0.0,0.0,0.0,0.0,0.0,0.0,0.0,0.0,0.0,0.0,0.0,0.0,0.0,0.0,0.0,0.0,0.0,0.0,0.0,0.0,0.0,0.0,0.0,0.0,0.0,0.0,0.0,0.0,0.0,0.0,0.0,0.0,0.0,0.0,0.0,0.0,0.0,-1.3667,-0.621,0.0,-1.338,-2.2191,-2.2393,-2.2461,-2.2085,-2.1727,0.0,0.0,0.0,0.0,0.0,0.0,0.0,0.0,0.0,0.0,0.0,0.0,0.0,0.0,0.0,0.0,0.0,0.0,0.0,0.0,0.0,0.0,0.0,0.0,0.0,0.0,0.0,0.0,0.0,0.0,0.0,0.0,0.0,0.0,0.0,0.0,0.0,0.0,0.0,0.0,0.0,0.0,0.0,0.0,0.0,0.0,0.0,0.0,0.0,0.0,0.0,0.0,0.0,0.0,0.0,0.0,0.0,0.0,0.0,0.0,0.0,0.0,0.0,0.0,0.0,0.0,0.0,0.0,0.0,0.0,0.0,0.0,0.0,0.0,0.0,0.0,0.0,0.0,0.0,0.0,0.0,0.0,0.0,0.0,0.0,0.0,0.0,0.0,0.0,0.0,0.0,0.0,0.0,0.0,0.0,0.0,0.0,0.0,0.0,0.0,0.0,0.0,0.0,-2.1082,-1.707,-0.3065,-1.4129,-2.2515,-2.2257,-2.2214,-2.1955,-2.0869,-1.908,0.0,0.0,0.0,0.0,0.0,0.0,0.0,0.0,0.0,0.0,0.0,0.0,0.0,0.0,0.0,0.0,0.0,0.0,0.0,0.0,0.0,0.0,0.0,0.0,0.0,0.0,0.0,0.0,0.0,0.0,0.0,0.0,0.0,0.0,0.0,0.0,0.0,0.0,0.0,0.0,0.0,0.0,0.0,0.0,0.0,0.0,0.0,0.0,0.0,0.0,0.0,0.0,0.0,0.0,0.0,0.0,0.0,0.0,0.0,0.0,0.0,0.0,0.0,0.0,0.0,0.0,0.0,0.0,0.0,0.0,0.0,0.0,0.0,0.0,0.0,0.0,0.0,0.0,0.0,0.0,0.0,0.0,0.0,0.0,0.0,0.0,0.0,0.0,0.0,0.0,0.0,0.0,0.0,0.0,0.0,0.0,0.0,0.0,0.0,0.0,0.0,0.0,-2.0839,-1.9961,-1.7535,-2.0367,-2.2445,-2.2358,-2.1494,-2.0945,-2.0847,-1.9233,0.0,0.0,0.0,0.0,0.0,0.0,0.0,0.0,0.0,0.0,0.0,0.0,0.0,0.0,0.0,0.0,0.0,0.0,0.0,0.0,0.0,0.0,0.0,0.0,0.0,0.0,0.0,0.0,0.0,0.0,0.0,0.0,0.0,0.0,0.0,0.0,0.0,0.0,0.0,0.0,0.0,0.0,0.0,0.0,0.0,0.0,0.0,0.0,0.0,0.0,0.0,0.0,0.0,0.0,0.0,0.0,0.0,0.0,0.0,0.0,0.0,0.0,0.0,0.0,0.0,0.0,0.0,0.0,0.0,0.0,0.0,0.0,0.0,0.0,0.0,0.0,0.0,0.0,0.0,0.0,0.0,0.0,0.0,0.0,0.0,0.0,0.0,0.0,0.0,0.0,0.0,0.0,0.0,0.0,0.0,0.0,0.0,0.0,0.0,0.0,0.0,0.0,-2.01,-2.0565,-2.1667,-2.1537,-2.1558,-2.1764,-2.0963,-2.0786,-2.0681,-1.9317,0.0,0.0,0.0,0.0,0.0,0.0,0.0,0.0,0.0,0.0,0.0,0.0,0.0,0.0,0.0,0.0,0.0,0.0,0.0,0.0,0.0,0.0,0.0,0.0,0.0,0.0,0.0,0.0,0.0,0.0,0.0,0.0,0.0,0.0,0.0,0.0,0.0,0.0,0.0,0.0,0.0,0.0,0.0,0.0,0.0,0.0,0.0,0.0,0.0,0.0,0.0,0.0,0.0,0.0,0.0,0.0,0.0,0.0,0.0,0.0,0.0,0.0,0.0,0.0,0.0,0.0,0.0,0.0,0.0,0.0,0.0,0.0,0.0,0.0,0.0,0.0,0.0,0.0,0.0,0.0,0.0,0.0,0.0,0.0,0.0,0.0,0.0,0.0,0.0,0.0,0.0,0.0,0.0,0.0,0.0,0.0,0.0,0.0,0.0,0.0,0.0,0.0,0.0,-1.9579,-2.062,-2.0643,-2.0714,-2.0859,-2.0807,-2.0959,-2.073,0.0,0.0,0.0,0.0,0.0,0.0,0.0,0.0,0.0,0.0,0.0,0.0,0.0,0.0,0.0,0.0,0.0,0.0,0.0,0.0,0.0,0.0,0.0,0.0,0.0,0.0,0.0,0.0,0.0,0.0,0.0,0.0,0.0,0.0,0.0,0.0,0.0,0.0,0.0,0.0,0.0,0.0,0.0,0.0,0.0,0.0,0.0,0.0,0.0,0.0,0.0,0.0,0.0,0.0,0.0,0.0,0.0,0.0,0.0,0.0,0.0,0.0,0.0,0.0,0.0,0.0,0.0,0.0,0.0,0.0,0.0,0.0,0.0,0.0,0.0,0.0,0.0,0.0,0.0,0.0,0.0,0.0,0.0,0.0,0.0,0.0,0.0,0.0,0.0,0.0,0.0,0.0,0.0,0.0,0.0,0.0,0.0,0.0,0.0,0.0,0.0,0.0,0.0,0.0,0.0,-1.9639,-2.0401,-2.0641,-2.0924,-2.0744,-2.0854,-2.077,0.0,0.0,0.0,0.0,0.0,0.0,0.0,0.0,0.0,0.0,0.0,0.0,0.0,0.0]}]]]